Wetterdaten: Mittwoch, 06.05.2015
Datum Zeit Temp. Aussen +5cm Feuchte Auss Luftdruck Regen Sonnenschein Regendauer Solar Windben
06.05.2015 00:00 12,1 C 11,1 C 78 % 1008,4 hPa 0,0 l/m 0 min 0 min 0 W/m 12,6 km/h (3 Bft)
06.05.2015 00:02 12,1 C 10,6 C 78 % 1008,4 hPa 0,0 l/m 0 min 0 min 0 W/m 6,3 km/h (2 Bft)
06.05.2015 00:06 12,1 C 10,6 C 78 % 1008,4 hPa 0,0 l/m 0 min 0 min 0 W/m 12,6 km/h (3 Bft)
06.05.2015 00:08 12,1 C 10,6 C 78 % 1008,4 hPa 0,0 l/m 0 min 0 min 0 W/m 14,6 km/h (3 Bft)
06.05.2015 00:10 12,1 C 11,1 C 78 % 1008,3 hPa 0,0 l/m 0 min 0 min 0 W/m 16,7 km/h (3 Bft)
06.05.2015 00:12 12,1 C 11,1 C 78 % 1008,4 hPa 0,0 l/m 0 min 0 min 0 W/m 18,8 km/h (3 Bft)
06.05.2015 00:14 12,1 C 11,1 C 79 % 1008,5 hPa 0,0 l/m 0 min 0 min 0 W/m 10,5 km/h (2 Bft)
06.05.2015 00:16 12,1 C 11,1 C 79 % 1008,4 hPa 0,0 l/m 0 min 0 min 0 W/m 14,6 km/h (3 Bft)
06.05.2015 00:18 12,1 C 11,1 C 79 % 1008,4 hPa 0,0 l/m 0 min 0 min 0 W/m 16,7 km/h (3 Bft)
06.05.2015 00:20 12,1 C 11,1 C 79 % 1008,5 hPa 0,0 l/m 0 min 0 min 0 W/m 14,6 km/h (3 Bft)
06.05.2015 00:22 12,2 C 11,1 C 79 % 1008,6 hPa 0,0 l/m 0 min 0 min 0 W/m 10,5 km/h (2 Bft)
06.05.2015 00:24 12,2 C 11,1 C 79 % 1008,5 hPa 0,0 l/m 0 min 0 min 0 W/m 12,6 km/h (3 Bft)
06.05.2015 00:26 12,2 C 11,1 C 79 % 1008,5 hPa 0,0 l/m 0 min 0 min 0 W/m 12,6 km/h (3 Bft)
06.05.2015 00:28 12,2 C 11,1 C 79 % 1008,5 hPa 0,0 l/m 0 min 0 min 0 W/m 12,6 km/h (3 Bft)
06.05.2015 00:30 12,2 C 11,1 C 79 % 1008,5 hPa 0,0 l/m 0 min 0 min 0 W/m 14,6 km/h (3 Bft)
06.05.2015 00:32 12,2 C 11,1 C 79 % 1008,5 hPa 0,0 l/m 0 min 0 min 0 W/m 12,6 km/h (3 Bft)
06.05.2015 00:34 12,3 C 11,1 C 79 % 1008,5 hPa 0,0 l/m 0 min 0 min 0 W/m 10,5 km/h (2 Bft)
06.05.2015 00:36 12,3 C 11,1 C 79 % 1008,5 hPa 0,0 l/m 0 min 0 min 0 W/m 14,6 km/h (3 Bft)
06.05.2015 00:38 12,3 C 11,1 C 79 % 1008,5 hPa 0,0 l/m 0 min 0 min 0 W/m 12,6 km/h (3 Bft)
06.05.2015 00:40 12,3 C 11,1 C 79 % 1008,6 hPa 0,0 l/m 0 min 0 min 0 W/m 10,5 km/h (2 Bft)
06.05.2015 00:42 12,3 C 11,1 C 79 % 1008,6 hPa 0,0 l/m 0 min 0 min 0 W/m 12,6 km/h (3 Bft)
06.05.2015 00:44 12,4 C 11,1 C 79 % 1008,6 hPa 0,0 l/m 0 min 0 min 0 W/m 16,7 km/h (3 Bft)
06.05.2015 00:46 12,4 C 11,1 C 79 % 1008,6 hPa 0,0 l/m 0 min 0 min 0 W/m 20,9 km/h (4 Bft)
06.05.2015 00:48 12,4 C 11,1 C 79 % 1008,6 hPa 0,0 l/m 0 min 0 min 0 W/m 20,9 km/h (4 Bft)
06.05.2015 00:50 12,4 C 11,1 C 79 % 1008,6 hPa 0,0 l/m 0 min 0 min 0 W/m 20,9 km/h (4 Bft)
06.05.2015 00:52 12,5 C 11,1 C 79 % 1008,7 hPa 0,0 l/m 0 min 0 min 0 W/m 16,7 km/h (3 Bft)
06.05.2015 00:54 12,6 C 11,1 C 79 % 1008,7 hPa 0,0 l/m 0 min 0 min 0 W/m 14,6 km/h (3 Bft)
06.05.2015 00:56 12,6 C 11,1 C 79 % 1008,7 hPa 0,0 l/m 0 min 0 min 0 W/m 18,8 km/h (3 Bft)
06.05.2015 00:58 12,6 C 11,1 C 79 % 1008,7 hPa 0,0 l/m 0 min 0 min 0 W/m 16,7 km/h (3 Bft)
06.05.2015 01:00 12,7 C 11,1 C 78 % 1008,7 hPa 0,0 l/m 0 min 0 min 0 W/m 16,7 km/h (3 Bft)
06.05.2015 01:02 12,7 C 11,1 C 78 % 1008,8 hPa 0,0 l/m 0 min 0 min 0 W/m 18,8 km/h (3 Bft)
06.05.2015 01:04 12,8 C 11,1 C 78 % 1008,8 hPa 0,0 l/m 0 min 0 min 0 W/m 18,8 km/h (3 Bft)
06.05.2015 01:06 12,8 C 11,1 C 78 % 1008,8 hPa 0,0 l/m 0 min 0 min 0 W/m 27,2 km/h (4 Bft)
06.05.2015 01:08 12,9 C 11,1 C 77 % 1008,8 hPa 0,0 l/m 0 min 0 min 0 W/m 18,8 km/h (3 Bft)
06.05.2015 01:10 13,0 C 11,1 C 77 % 1008,8 hPa 0,0 l/m 0 min 0 min 0 W/m 20,9 km/h (4 Bft)
06.05.2015 01:12 13,1 C 11,1 C 77 % 1008,9 hPa 0,0 l/m 0 min 0 min 0 W/m 23,0 km/h (4 Bft)
06.05.2015 01:14 13,2 C 11,1 C 76 % 1008,8 hPa 0,0 l/m 0 min 0 min 0 W/m 20,9 km/h (4 Bft)
06.05.2015 01:16 13,2 C 11,1 C 76 % 1008,9 hPa 0,0 l/m 0 min 0 min 0 W/m 14,6 km/h (3 Bft)
06.05.2015 01:18 13,3 C 11,1 C 76 % 1009,0 hPa 0,0 l/m 0 min 0 min 0 W/m 20,9 km/h (4 Bft)
06.05.2015 01:20 13,3 C 11,1 C 76 % 1008,9 hPa 0,0 l/m 0 min 0 min 0 W/m 20,9 km/h (4 Bft)
06.05.2015 01:22 13,3 C 11,1 C 76 % 1009,0 hPa 0,0 l/m 0 min 0 min 0 W/m 14,6 km/h (3 Bft)
06.05.2015 01:24 13,3 C 11,1 C 76 % 1009,0 hPa 0,0 l/m 0 min 0 min 0 W/m 18,8 km/h (3 Bft)
06.05.2015 01:26 13,3 C 11,1 C 76 % 1009,0 hPa 0,0 l/m 0 min 0 min 0 W/m 14,6 km/h (3 Bft)
06.05.2015 01:28 13,4 C 11,1 C 75 % 1009,0 hPa 0,0 l/m 0 min 0 min 0 W/m 20,9 km/h (4 Bft)
06.05.2015 01:30 13,4 C 11,1 C 76 % 1008,9 hPa 0,0 l/m 0 min 0 min 0 W/m 18,8 km/h (3 Bft)
06.05.2015 01:32 13,4 C 11,1 C 75 % 1009,0 hPa 0,0 l/m 0 min 0 min 0 W/m 18,8 km/h (3 Bft)
06.05.2015 01:34 13,4 C 11,1 C 75 % 1009,0 hPa 0,0 l/m 0 min 0 min 0 W/m 18,8 km/h (3 Bft)
06.05.2015 01:36 13,4 C 11,1 C 75 % 1009,0 hPa 0,0 l/m 0 min 0 min 0 W/m 14,6 km/h (3 Bft)
06.05.2015 01:38 13,4 C 11,1 C 75 % 1009,0 hPa 0,0 l/m 0 min 0 min 0 W/m 14,6 km/h (3 Bft)
06.05.2015 01:40 13,4 C 11,1 C 75 % 1009,1 hPa 0,0 l/m 0 min 0 min 0 W/m 14,6 km/h (3 Bft)
06.05.2015 01:42 13,3 C 11,1 C 75 % 1009,1 hPa 0,0 l/m 0 min 0 min 0 W/m 14,6 km/h (3 Bft)
06.05.2015 01:44 13,3 C 11,1 C 75 % 1009,0 hPa 0,0 l/m 0 min 0 min 0 W/m 12,6 km/h (3 Bft)
06.05.2015 01:46 13,3 C 11,1 C 75 % 1009,0 hPa 0,0 l/m 0 min 0 min 0 W/m 12,6 km/h (3 Bft)
06.05.2015 01:48 13,3 C 10,6 C 75 % 1009,1 hPa 0,0 l/m 0 min 0 min 0 W/m 18,8 km/h (3 Bft)
06.05.2015 01:50 13,2 C 10,6 C 75 % 1009,1 hPa 0,0 l/m 0 min 0 min 0 W/m 12,6 km/h (3 Bft)
06.05.2015 01:52 13,2 C 10,6 C 75 % 1009,1 hPa 0,0 l/m 0 min 0 min 0 W/m 14,6 km/h (3 Bft)
06.05.2015 01:54 13,2 C 10,6 C 75 % 1009,2 hPa 0,0 l/m 0 min 0 min 0 W/m 16,7 km/h (3 Bft)
06.05.2015 01:56 13,1 C 10,6 C 76 % 1009,2 hPa 0,0 l/m 0 min 0 min 0 W/m 18,8 km/h (3 Bft)
06.05.2015 01:58 13,1 C 10,6 C 76 % 1009,2 hPa 0,0 l/m 0 min 0 min 0 W/m 20,9 km/h (4 Bft)
06.05.2015 02:00 13,1 C 10,6 C 76 % 1009,2 hPa 0,0 l/m 0 min 0 min 0 W/m 16,7 km/h (3 Bft)
06.05.2015 02:02 13,0 C 10,6 C 76 % 1009,3 hPa 0,0 l/m 0 min 0 min 0 W/m 23,0 km/h (4 Bft)
06.05.2015 02:04 12,9 C 10,6 C 76 % 1009,3 hPa 0,0 l/m 0 min 0 min 0 W/m 18,8 km/h (3 Bft)
06.05.2015 02:06 12,9 C 10,6 C 76 % 1009,3 hPa 0,0 l/m 0 min 0 min 0 W/m 14,6 km/h (3 Bft)
06.05.2015 02:08 12,9 C 10,6 C 76 % 1009,3 hPa 0,0 l/m 0 min 0 min 0 W/m 14,6 km/h (3 Bft)
06.05.2015 02:10 12,9 C 10,6 C 76 % 1009,3 hPa 0,0 l/m 0 min 0 min 0 W/m 16,7 km/h (3 Bft)
06.05.2015 02:12 12,8 C 10,6 C 76 % 1009,4 hPa 0,0 l/m 0 min 0 min 0 W/m 16,7 km/h (3 Bft)
06.05.2015 02:14 12,8 C 10,6 C 76 % 1009,4 hPa 0,0 l/m 0 min 0 min 0 W/m 18,8 km/h (3 Bft)
06.05.2015 02:16 12,8 C 10,6 C 77 % 1009,3 hPa 0,0 l/m 0 min 0 min 0 W/m 16,7 km/h (3 Bft)
06.05.2015 02:18 12,8 C 10,6 C 77 % 1009,3 hPa 0,0 l/m 0 min 0 min 0 W/m 16,7 km/h (3 Bft)
06.05.2015 02:20 12,7 C 10,6 C 77 % 1009,4 hPa 0,0 l/m 0 min 0 min 0 W/m 10,5 km/h (2 Bft)
06.05.2015 02:22 12,7 C 10,6 C 77 % 1009,4 hPa 0,0 l/m 0 min 0 min 0 W/m 16,7 km/h (3 Bft)
06.05.2015 02:24 12,7 C 10,6 C 77 % 1009,4 hPa 0,0 l/m 0 min 0 min 0 W/m 18,8 km/h (3 Bft)
06.05.2015 02:26 12,7 C 10,6 C 77 % 1009,4 hPa 0,0 l/m 0 min 0 min 0 W/m 12,6 km/h (3 Bft)
06.05.2015 02:28 12,6 C 10,6 C 77 % 1009,4 hPa 0,0 l/m 0 min 0 min 0 W/m 23,0 km/h (4 Bft)
06.05.2015 02:30 12,6 C 10,6 C 77 % 1009,4 hPa 0,0 l/m 0 min 0 min 0 W/m 14,6 km/h (3 Bft)
06.05.2015 02:32 12,6 C 10,6 C 77 % 1009,4 hPa 0,0 l/m 0 min 0 min 0 W/m 20,9 km/h (4 Bft)
06.05.2015 02:34 12,6 C 10,6 C 77 % 1009,5 hPa 0,0 l/m 0 min 0 min 0 W/m 14,6 km/h (3 Bft)
06.05.2015 02:36 12,5 C 10,6 C 77 % 1009,5 hPa 0,0 l/m 0 min 0 min 0 W/m 16,7 km/h (3 Bft)
06.05.2015 02:38 12,5 C 10,6 C 77 % 1009,5 hPa 0,0 l/m 0 min 0 min 0 W/m 23,0 km/h (4 Bft)
06.05.2015 02:40 12,5 C 10,6 C 77 % 1009,4 hPa 0,0 l/m 0 min 0 min 0 W/m 16,7 km/h (3 Bft)
06.05.2015 02:42 12,5 C 10,6 C 77 % 1009,5 hPa 0,0 l/m 0 min 0 min 0 W/m 18,8 km/h (3 Bft)
06.05.2015 02:44 12,5 C 10,6 C 77 % 1009,5 hPa 0,0 l/m 0 min 0 min 0 W/m 20,9 km/h (4 Bft)
06.05.2015 02:46 12,5 C 10,6 C 77 % 1009,5 hPa 0,0 l/m 0 min 0 min 0 W/m 18,8 km/h (3 Bft)
06.05.2015 02:48 12,5 C 10,6 C 77 % 1009,5 hPa 0,0 l/m 0 min 0 min 0 W/m 20,9 km/h (4 Bft)
06.05.2015 02:50 12,5 C 10,6 C 77 % 1009,5 hPa 0,0 l/m 0 min 0 min 0 W/m 18,8 km/h (3 Bft)
06.05.2015 02:52 12,5 C 10,6 C 77 % 1009,5 hPa 0,0 l/m 0 min 0 min 0 W/m 14,6 km/h (3 Bft)
06.05.2015 02:54 12,5 C 10,6 C 77 % 1009,5 hPa 0,0 l/m 0 min 0 min 0 W/m 18,8 km/h (3 Bft)
06.05.2015 02:56 12,5 C 10,6 C 77 % 1009,5 hPa 0,0 l/m 0 min 0 min 0 W/m 14,6 km/h (3 Bft)
06.05.2015 02:58 12,5 C 10,6 C 77 % 1009,5 hPa 0,0 l/m 0 min 0 min 0 W/m 20,9 km/h (4 Bft)
06.05.2015 03:00 12,5 C 10,6 C 77 % 1009,5 hPa 0,0 l/m 0 min 0 min 0 W/m 20,9 km/h (4 Bft)
06.05.2015 03:02 12,5 C 10,6 C 77 % 1009,5 hPa 0,0 l/m 0 min 0 min 0 W/m 18,8 km/h (3 Bft)
06.05.2015 03:04 12,4 C 10,6 C 76 % 1009,6 hPa 0,0 l/m 0 min 0 min 0 W/m 18,8 km/h (3 Bft)
06.05.2015 03:06 12,4 C 10,6 C 76 % 1009,6 hPa 0,0 l/m 0 min 0 min 0 W/m 18,8 km/h (3 Bft)
06.05.2015 03:08 12,4 C 10,6 C 76 % 1009,6 hPa 0,0 l/m 0 min 0 min 0 W/m 18,8 km/h (3 Bft)
06.05.2015 03:10 12,4 C 10,6 C 76 % 1009,6 hPa 0,0 l/m 0 min 0 min 0 W/m 20,9 km/h (4 Bft)
06.05.2015 03:12 12,4 C 10,6 C 76 % 1009,6 hPa 0,0 l/m 0 min 0 min 0 W/m 16,7 km/h (3 Bft)
06.05.2015 03:14 12,4 C 10,6 C 76 % 1009,6 hPa 0,0 l/m 0 min 0 min 0 W/m 20,9 km/h (4 Bft)
06.05.2015 03:16 12,4 C 10,6 C 76 % 1009,6 hPa 0,0 l/m 0 min 0 min 0 W/m 14,6 km/h (3 Bft)
06.05.2015 03:18 12,4 C 10,6 C 76 % 1009,6 hPa 0,0 l/m 0 min 0 min 0 W/m 12,6 km/h (3 Bft)
06.05.2015 03:20 12,4 C 10,6 C 75 % 1009,6 hPa 0,0 l/m 0 min 0 min 0 W/m 16,7 km/h (3 Bft)
06.05.2015 03:22 12,4 C 10,6 C 75 % 1009,7 hPa 0,0 l/m 0 min 0 min 0 W/m 8,4 km/h (2 Bft)
06.05.2015 03:24 12,4 C 10,6 C 75 % 1009,7 hPa 0,0 l/m 0 min 0 min 0 W/m 16,7 km/h (3 Bft)
06.05.2015 03:26 12,4 C 10,6 C 75 % 1009,7 hPa 0,0 l/m 0 min 0 min 0 W/m 14,6 km/h (3 Bft)
06.05.2015 03:28 12,4 C 10,6 C 75 % 1009,7 hPa 0,0 l/m 0 min 0 min 0 W/m 14,6 km/h (3 Bft)
06.05.2015 03:30 12,4 C 10,6 C 75 % 1009,7 hPa 0,0 l/m 0 min 0 min 0 W/m 14,6 km/h (3 Bft)
06.05.2015 03:32 12,4 C 10,0 C 75 % 1009,7 hPa 0,0 l/m 0 min 0 min 0 W/m 16,7 km/h (3 Bft)
06.05.2015 03:34 12,3 C 10,0 C 75 % 1009,7 hPa 0,0 l/m 0 min 0 min 0 W/m 18,8 km/h (3 Bft)
06.05.2015 03:36 12,3 C 10,0 C 75 % 1009,7 hPa 0,0 l/m 0 min 0 min 0 W/m 14,6 km/h (3 Bft)
06.05.2015 03:38 12,3 C 10,0 C 76 % 1009,7 hPa 0,0 l/m 0 min 0 min 0 W/m 14,6 km/h (3 Bft)
06.05.2015 03:40 12,2 C 10,0 C 76 % 1009,7 hPa 0,0 l/m 0 min 0 min 0 W/m 14,6 km/h (3 Bft)
06.05.2015 03:42 12,2 C 10,0 C 76 % 1009,7 hPa 0,0 l/m 0 min 0 min 0 W/m 14,6 km/h (3 Bft)
06.05.2015 03:44 12,2 C 10,0 C 76 % 1009,7 hPa 0,0 l/m 0 min 0 min 0 W/m 14,6 km/h (3 Bft)
06.05.2015 03:46 12,2 C 10,0 C 76 % 1009,7 hPa 0,0 l/m 0 min 0 min 0 W/m 12,6 km/h (3 Bft)
06.05.2015 03:48 12,2 C 10,0 C 76 % 1009,7 hPa 0,0 l/m 0 min 0 min 0 W/m 14,6 km/h (3 Bft)
06.05.2015 03:50 12,1 C 10,0 C 76 % 1009,7 hPa 0,0 l/m 0 min 0 min 0 W/m 16,7 km/h (3 Bft)
06.05.2015 03:52 12,1 C 10,0 C 76 % 1009,7 hPa 0,0 l/m 0 min 0 min 0 W/m 18,8 km/h (3 Bft)
06.05.2015 03:54 12,1 C 10,0 C 76 % 1009,7 hPa 0,0 l/m 0 min 0 min 0 W/m 18,8 km/h (3 Bft)
06.05.2015 03:56 12,0 C 10,0 C 76 % 1009,7 hPa 0,0 l/m 0 min 0 min 0 W/m 14,6 km/h (3 Bft)
06.05.2015 03:58 12,0 C 10,0 C 76 % 1009,7 hPa 0,0 l/m 0 min 0 min 0 W/m 10,5 km/h (2 Bft)
06.05.2015 04:00 11,9 C 10,0 C 76 % 1009,7 hPa 0,0 l/m 0 min 0 min 0 W/m 14,6 km/h (3 Bft)
06.05.2015 04:02 11,9 C 10,0 C 76 % 1009,7 hPa 0,0 l/m 0 min 0 min 0 W/m 14,6 km/h (3 Bft)
06.05.2015 04:04 11,9 C 10,0 C 76 % 1009,7 hPa 0,0 l/m 0 min 0 min 0 W/m 14,6 km/h (3 Bft)
06.05.2015 04:06 11,8 C 10,0 C 76 % 1009,6 hPa 0,0 l/m 0 min 0 min 0 W/m 12,6 km/h (3 Bft)
06.05.2015 04:08 11,8 C 10,0 C 76 % 1009,6 hPa 0,0 l/m 0 min 0 min 0 W/m 10,5 km/h (2 Bft)
06.05.2015 04:10 11,8 C 10,0 C 76 % 1009,7 hPa 0,0 l/m 0 min 0 min 0 W/m 14,6 km/h (3 Bft)
06.05.2015 04:12 11,7 C 10,0 C 76 % 1009,7 hPa 0,0 l/m 0 min 0 min 0 W/m 16,7 km/h (3 Bft)
06.05.2015 04:14 11,7 C 10,0 C 76 % 1009,7 hPa 0,0 l/m 0 min 0 min 0 W/m 18,8 km/h (3 Bft)
06.05.2015 04:16 11,7 C 10,0 C 76 % 1009,7 hPa 0,0 l/m 0 min 0 min 0 W/m 12,6 km/h (3 Bft)
06.05.2015 04:18 11,6 C 10,0 C 76 % 1009,7 hPa 0,0 l/m 0 min 0 min 0 W/m 12,6 km/h (3 Bft)
06.05.2015 04:20 11,6 C 10,0 C 76 % 1009,7 hPa 0,0 l/m 0 min 0 min 0 W/m 10,5 km/h (2 Bft)
06.05.2015 04:22 11,6 C 10,0 C 76 % 1009,7 hPa 0,0 l/m 0 min 0 min 0 W/m 14,6 km/h (3 Bft)
06.05.2015 04:27 11,5 C 10,0 C 76 % 1009,7 hPa 0,0 l/m 0 min 0 min 0 W/m 12,6 km/h (3 Bft)
06.05.2015 04:28 11,6 C 10,0 C 77 % 1009,7 hPa 0,0 l/m 0 min 0 min 0 W/m 12,6 km/h (3 Bft)
06.05.2015 04:30 11,5 C 10,0 C 77 % 1009,6 hPa 0,0 l/m 0 min 0 min 0 W/m 14,6 km/h (3 Bft)
06.05.2015 04:32 11,5 C 10,0 C 77 % 1009,6 hPa 0,0 l/m 0 min 0 min 0 W/m 12,6 km/h (3 Bft)
06.05.2015 04:34 11,4 C 10,0 C 77 % 1009,6 hPa 0,0 l/m 0 min 0 min 0 W/m 12,6 km/h (3 Bft)
06.05.2015 04:36 11,4 C 10,0 C 77 % 1009,5 hPa 0,0 l/m 0 min 0 min 0 W/m 12,6 km/h (3 Bft)
06.05.2015 04:38 11,4 C 10,0 C 77 % 1009,6 hPa 0,0 l/m 0 min 0 min 0 W/m 12,6 km/h (3 Bft)
06.05.2015 04:40 11,4 C 9,4 C 77 % 1009,5 hPa 0,0 l/m 0 min 0 min 0 W/m 12,6 km/h (3 Bft)
06.05.2015 04:42 11,4 C 9,4 C 78 % 1009,6 hPa 0,0 l/m 0 min 0 min 0 W/m 12,6 km/h (3 Bft)
06.05.2015 04:44 11,3 C 9,4 C 78 % 1009,6 hPa 0,0 l/m 0 min 0 min 0 W/m 12,6 km/h (3 Bft)
06.05.2015 04:46 11,3 C 9,4 C 78 % 1009,5 hPa 0,0 l/m 0 min 0 min 0 W/m 14,6 km/h (3 Bft)
06.05.2015 04:48 11,3 C 9,4 C 78 % 1009,5 hPa 0,0 l/m 0 min 0 min 0 W/m 14,6 km/h (3 Bft)
06.05.2015 04:50 11,2 C 9,4 C 78 % 1009,5 hPa 0,0 l/m 0 min 0 min 0 W/m 12,6 km/h (3 Bft)
06.05.2015 04:52 11,2 C 9,4 C 78 % 1009,6 hPa 0,0 l/m 0 min 0 min 0 W/m 12,6 km/h (3 Bft)
06.05.2015 04:54 11,2 C 9,4 C 78 % 1009,5 hPa 0,0 l/m 0 min 0 min 0 W/m 14,6 km/h (3 Bft)
06.05.2015 04:56 11,2 C 9,4 C 78 % 1009,5 hPa 0,0 l/m 0 min 0 min 0 W/m 16,7 km/h (3 Bft)
06.05.2015 04:58 11,1 C 9,4 C 79 % 1009,5 hPa 0,0 l/m 0 min 0 min 0 W/m 14,6 km/h (3 Bft)
06.05.2015 05:00 11,1 C 9,4 C 79 % 1009,5 hPa 0,0 l/m 0 min 0 min 0 W/m 14,6 km/h (3 Bft)
06.05.2015 05:02 11,1 C 9,4 C 79 % 1009,5 hPa 0,0 l/m 0 min 0 min 0 W/m 16,7 km/h (3 Bft)
06.05.2015 05:04 11,1 C 9,4 C 79 % 1009,5 hPa 0,0 l/m 0 min 0 min 0 W/m 23,0 km/h (4 Bft)
06.05.2015 05:06 11,0 C 9,4 C 79 % 1009,5 hPa 0,0 l/m 0 min 0 min 0 W/m 14,6 km/h (3 Bft)
06.05.2015 05:08 11,0 C 9,4 C 79 % 1009,5 hPa 0,0 l/m 0 min 0 min 0 W/m 14,6 km/h (3 Bft)
06.05.2015 05:10 10,9 C 9,4 C 79 % 1009,5 hPa 0,0 l/m 0 min 0 min 0 W/m 12,6 km/h (3 Bft)
06.05.2015 05:12 10,9 C 9,4 C 79 % 1009,5 hPa 0,0 l/m 0 min 0 min 0 W/m 8,4 km/h (2 Bft)
06.05.2015 05:14 10,9 C 9,4 C 79 % 1009,5 hPa 0,0 l/m 0 min 0 min 0 W/m 16,7 km/h (3 Bft)
06.05.2015 05:16 10,9 C 9,4 C 79 % 1009,5 hPa 0,0 l/m 0 min 0 min 0 W/m 14,6 km/h (3 Bft)
06.05.2015 05:18 10,9 C 9,4 C 79 % 1009,5 hPa 0,0 l/m 0 min 0 min 0 W/m 14,6 km/h (3 Bft)
06.05.2015 05:20 10,8 C 9,4 C 79 % 1009,5 hPa 0,0 l/m 0 min 0 min 0 W/m 14,6 km/h (3 Bft)
06.05.2015 05:22 10,8 C 9,4 C 79 % 1009,5 hPa 0,0 l/m 0 min 0 min 0 W/m 10,5 km/h (2 Bft)
06.05.2015 05:24 10,8 C 9,4 C 79 % 1009,5 hPa 0,0 l/m 0 min 0 min 0 W/m 8,4 km/h (2 Bft)
06.05.2015 05:26 10,8 C 9,4 C 79 % 1009,6 hPa 0,0 l/m 0 min 0 min 0 W/m 14,6 km/h (3 Bft)
06.05.2015 05:28 10,7 C 9,4 C 79 % 1009,6 hPa 0,0 l/m 0 min 0 min 0 W/m 16,7 km/h (3 Bft)
06.05.2015 05:30 10,7 C 9,4 C 79 % 1009,6 hPa 0,0 l/m 0 min 0 min 0 W/m 16,7 km/h (3 Bft)
06.05.2015 05:32 10,7 C 9,4 C 79 % 1009,6 hPa 0,0 l/m 0 min 0 min 0 W/m 10,5 km/h (2 Bft)
06.05.2015 05:34 10,7 C 9,4 C 79 % 1009,6 hPa 0,0 l/m 0 min 0 min 0 W/m 8,4 km/h (2 Bft)
06.05.2015 05:36 10,7 C 9,4 C 78 % 1009,7 hPa 0,0 l/m 0 min 0 min 0 W/m 14,6 km/h (3 Bft)
06.05.2015 05:38 10,6 C 9,4 C 78 % 1009,6 hPa 0,0 l/m 0 min 0 min 0 W/m 14,6 km/h (3 Bft)
06.05.2015 05:40 10,6 C 9,4 C 78 % 1009,6 hPa 0,0 l/m 0 min 0 min 0 W/m 12,6 km/h (3 Bft)
06.05.2015 05:42 10,6 C 9,4 C 78 % 1009,6 hPa 0,0 l/m 0 min 0 min 0 W/m 12,6 km/h (3 Bft)
06.05.2015 05:44 10,6 C 9,4 C 78 % 1009,7 hPa 0,0 l/m 0 min 0 min 0 W/m 10,5 km/h (2 Bft)
06.05.2015 05:46 10,5 C 9,4 C 78 % 1009,6 hPa 0,0 l/m 0 min 0 min 0 W/m 14,6 km/h (3 Bft)
06.05.2015 05:48 10,5 C 9,4 C 78 % 1009,8 hPa 0,0 l/m 0 min 0 min 0 W/m 12,6 km/h (3 Bft)
06.05.2015 05:50 10,5 C 9,4 C 78 % 1009,7 hPa 0,0 l/m 0 min 0 min 0 W/m 10,5 km/h (2 Bft)
06.05.2015 05:52 10,4 C 9,4 C 78 % 1009,7 hPa 0,0 l/m 0 min 0 min 0 W/m 12,6 km/h (3 Bft)
06.05.2015 05:54 10,4 C 9,4 C 78 % 1009,8 hPa 0,0 l/m 0 min 0 min 3 W/m 12,6 km/h (3 Bft)
06.05.2015 05:56 10,4 C 9,4 C 78 % 1009,7 hPa 0,0 l/m 0 min 0 min 5 W/m 12,6 km/h (3 Bft)
06.05.2015 05:58 10,4 C 8,9 C 78 % 1009,7 hPa 0,0 l/m 0 min 0 min 5 W/m 10,5 km/h (2 Bft)
06.05.2015 06:00 10,3 C 8,9 C 79 % 1009,8 hPa 0,0 l/m 0 min 0 min 6 W/m 12,6 km/h (3 Bft)
06.05.2015 06:03 10,3 C 8,9 C 79 % 1009,9 hPa 0,0 l/m 0 min 0 min 7 W/m 12,6 km/h (3 Bft)
06.05.2015 06:04 10,3 C 8,9 C 79 % 1009,9 hPa 0,0 l/m 0 min 0 min 7 W/m 12,6 km/h (3 Bft)
06.05.2015 06:06 10,2 C 8,9 C 79 % 1009,8 hPa 0,0 l/m 0 min 0 min 9 W/m 12,6 km/h (3 Bft)
06.05.2015 06:08 10,2 C 8,9 C 79 % 1009,8 hPa 0,0 l/m 0 min 0 min 10 W/m 10,5 km/h (2 Bft)
06.05.2015 06:10 10,2 C 8,9 C 79 % 1009,8 hPa 0,0 l/m 0 min 0 min 11 W/m 8,4 km/h (2 Bft)
06.05.2015 06:12 10,1 C 8,9 C 79 % 1009,8 hPa 0,0 l/m 0 min 0 min 12 W/m 10,5 km/h (2 Bft)
06.05.2015 06:14 10,1 C 8,9 C 79 % 1009,8 hPa 0,0 l/m 0 min 0 min 13 W/m 18,8 km/h (3 Bft)
06.05.2015 06:16 10,1 C 8,9 C 79 % 1009,8 hPa 0,0 l/m 0 min 0 min 14 W/m 12,6 km/h (3 Bft)
06.05.2015 06:18 10,1 C 8,9 C 79 % 1009,8 hPa 0,0 l/m 0 min 0 min 15 W/m 14,6 km/h (3 Bft)
06.05.2015 06:20 10,0 C 8,9 C 80 % 1009,8 hPa 0,0 l/m 0 min 0 min 17 W/m 8,4 km/h (2 Bft)
06.05.2015 06:22 10,0 C 8,9 C 80 % 1009,8 hPa 0,0 l/m 0 min 0 min 19 W/m 12,6 km/h (3 Bft)
06.05.2015 06:24 9,9 C 8,9 C 80 % 1009,8 hPa 0,0 l/m 0 min 0 min 20 W/m 14,6 km/h (3 Bft)
06.05.2015 06:26 9,9 C 8,9 C 80 % 1009,8 hPa 0,0 l/m 0 min 0 min 19 W/m 12,6 km/h (3 Bft)
06.05.2015 06:28 9,9 C 8,9 C 80 % 1009,9 hPa 0,0 l/m 0 min 0 min 21 W/m 10,5 km/h (2 Bft)
06.05.2015 06:30 9,9 C 8,9 C 80 % 1009,9 hPa 0,0 l/m 0 min 0 min 26 W/m 12,6 km/h (3 Bft)
06.05.2015 06:32 9,9 C 8,9 C 80 % 1009,9 hPa 0,0 l/m 0 min 0 min 30 W/m 12,6 km/h (3 Bft)
06.05.2015 06:34 9,9 C 8,9 C 80 % 1009,9 hPa 0,0 l/m 0 min 0 min 27 W/m 12,6 km/h (3 Bft)
06.05.2015 06:36 9,9 C 8,9 C 80 % 1009,9 hPa 0,0 l/m 0 min 0 min 33 W/m 12,6 km/h (3 Bft)
06.05.2015 06:38 9,9 C 8,9 C 80 % 1010,0 hPa 0,0 l/m 0 min 0 min 39 W/m 12,6 km/h (3 Bft)
06.05.2015 06:40 9,9 C 8,9 C 80 % 1010,1 hPa 0,0 l/m 0 min 0 min 42 W/m 10,5 km/h (2 Bft)
06.05.2015 06:42 9,9 C 8,9 C 80 % 1010,0 hPa 0,0 l/m 2 min 0 min 46 W/m 12,6 km/h (3 Bft)
06.05.2015 06:44 9,9 C 8,9 C 81 % 1010,0 hPa 0,0 l/m 0 min 0 min 48 W/m 20,9 km/h (4 Bft)
06.05.2015 06:46 9,9 C 8,9 C 81 % 1010,1 hPa 0,0 l/m 2 min 0 min 51 W/m 18,8 km/h (3 Bft)
06.05.2015 06:48 9,9 C 8,9 C 81 % 1010,1 hPa 0,0 l/m 2 min 0 min 54 W/m 10,5 km/h (2 Bft)
06.05.2015 06:50 9,9 C 8,9 C 81 % 1010,1 hPa 0,0 l/m 2 min 0 min 58 W/m 12,6 km/h (3 Bft)
06.05.2015 06:52 9,9 C 9,4 C 81 % 1010,1 hPa 0,0 l/m 2 min 0 min 62 W/m 14,6 km/h (3 Bft)
06.05.2015 06:54 9,9 C 9,4 C 81 % 1010,2 hPa 0,0 l/m 2 min 0 min 66 W/m 12,6 km/h (3 Bft)
06.05.2015 06:56 10,0 C 8,9 C 82 % 1010,1 hPa 0,0 l/m 2 min 0 min 71 W/m 18,8 km/h (3 Bft)
06.05.2015 06:58 10,0 C 8,9 C 81 % 1010,2 hPa 0,0 l/m 2 min 0 min 76 W/m 25,1 km/h (4 Bft)
06.05.2015 07:00 10,1 C 9,4 C 81 % 1010,2 hPa 0,0 l/m 2 min 0 min 79 W/m 16,7 km/h (3 Bft)
06.05.2015 07:02 10,1 C 9,4 C 81 % 1010,1 hPa 0,0 l/m 2 min 0 min 84 W/m 18,8 km/h (3 Bft)
06.05.2015 07:04 10,1 C 9,4 C 81 % 1010,2 hPa 0,0 l/m 2 min 0 min 89 W/m 20,9 km/h (4 Bft)
06.05.2015 07:06 10,2 C 9,4 C 81 % 1010,2 hPa 0,0 l/m 2 min 0 min 93 W/m 12,6 km/h (3 Bft)
06.05.2015 07:08 10,2 C 9,4 C 81 % 1010,2 hPa 0,0 l/m 2 min 0 min 98 W/m 14,6 km/h (3 Bft)
06.05.2015 07:10 10,3 C 9,4 C 81 % 1010,2 hPa 0,0 l/m 2 min 0 min 103 W/m 14,6 km/h (3 Bft)
06.05.2015 07:12 10,3 C 9,4 C 81 % 1010,2 hPa 0,0 l/m 2 min 0 min 108 W/m 27,2 km/h (4 Bft)
06.05.2015 07:14 10,4 C 9,4 C 81 % 1010,2 hPa 0,0 l/m 2 min 0 min 114 W/m 14,6 km/h (3 Bft)
06.05.2015 07:16 10,4 C 9,4 C 81 % 1010,2 hPa 0,0 l/m 2 min 0 min 119 W/m 20,9 km/h (4 Bft)
06.05.2015 07:18 10,5 C 9,4 C 81 % 1010,2 hPa 0,0 l/m 2 min 0 min 124 W/m 14,6 km/h (3 Bft)
06.05.2015 07:20 10,6 C 9,4 C 80 % 1010,2 hPa 0,0 l/m 2 min 0 min 130 W/m 18,8 km/h (3 Bft)
06.05.2015 07:22 10,6 C 9,4 C 80 % 1010,2 hPa 0,0 l/m 2 min 0 min 136 W/m 18,8 km/h (3 Bft)
06.05.2015 07:24 10,7 C 9,4 C 80 % 1010,2 hPa 0,0 l/m 2 min 0 min 140 W/m 18,8 km/h (3 Bft)
06.05.2015 07:26 10,7 C 9,4 C 80 % 1010,2 hPa 0,0 l/m 2 min 0 min 146 W/m 16,7 km/h (3 Bft)
06.05.2015 07:28 10,7 C 9,4 C 80 % 1010,2 hPa 0,0 l/m 2 min 0 min 151 W/m 16,7 km/h (3 Bft)
06.05.2015 07:30 10,8 C 9,4 C 80 % 1010,2 hPa 0,0 l/m 2 min 0 min 156 W/m 18,8 km/h (3 Bft)
06.05.2015 07:32 10,8 C 9,4 C 79 % 1010,2 hPa 0,0 l/m 2 min 0 min 162 W/m 20,9 km/h (4 Bft)
06.05.2015 07:34 10,9 C 9,4 C 79 % 1010,3 hPa 0,0 l/m 2 min 0 min 166 W/m 25,1 km/h (4 Bft)
06.05.2015 07:36 10,9 C 9,4 C 79 % 1010,3 hPa 0,0 l/m 2 min 0 min 171 W/m 14,6 km/h (3 Bft)
06.05.2015 07:38 10,9 C 9,4 C 79 % 1010,3 hPa 0,0 l/m 2 min 0 min 176 W/m 20,9 km/h (4 Bft)
06.05.2015 07:40 11,0 C 9,4 C 79 % 1010,3 hPa 0,0 l/m 2 min 0 min 181 W/m 23,0 km/h (4 Bft)
06.05.2015 07:42 11,1 C 9,4 C 79 % 1010,3 hPa 0,0 l/m 2 min 0 min 185 W/m 23,0 km/h (4 Bft)
06.05.2015 07:44 11,1 C 9,4 C 79 % 1010,3 hPa 0,0 l/m 2 min 0 min 190 W/m 20,9 km/h (4 Bft)
06.05.2015 07:46 11,1 C 9,4 C 79 % 1010,3 hPa 0,0 l/m 2 min 0 min 195 W/m 16,7 km/h (3 Bft)
06.05.2015 07:48 11,2 C 9,4 C 78 % 1010,3 hPa 0,0 l/m 2 min 0 min 201 W/m 20,9 km/h (4 Bft)
06.05.2015 07:50 11,2 C 9,4 C 78 % 1010,4 hPa 0,0 l/m 2 min 0 min 206 W/m 27,2 km/h (4 Bft)
06.05.2015 07:52 11,2 C 9,4 C 78 % 1010,3 hPa 0,0 l/m 2 min 0 min 211 W/m 27,2 km/h (4 Bft)
06.05.2015 07:54 11,2 C 9,4 C 78 % 1010,5 hPa 0,0 l/m 2 min 0 min 216 W/m 27,2 km/h (4 Bft)
06.05.2015 07:56 11,3 C 9,4 C 77 % 1010,4 hPa 0,0 l/m 2 min 0 min 222 W/m 23,0 km/h (4 Bft)
06.05.2015 07:58 11,3 C 9,4 C 77 % 1010,4 hPa 0,0 l/m 2 min 0 min 227 W/m 25,1 km/h (4 Bft)
06.05.2015 08:00 11,3 C 9,4 C 77 % 1010,5 hPa 0,0 l/m 2 min 0 min 232 W/m 29,3 km/h (5 Bft)
06.05.2015 08:02 11,4 C 9,4 C 77 % 1010,6 hPa 0,0 l/m 2 min 0 min 237 W/m 25,1 km/h (4 Bft)
06.05.2015 08:04 11,4 C 9,4 C 77 % 1010,7 hPa 0,0 l/m 2 min 0 min 242 W/m 31,4 km/h (5 Bft)
06.05.2015 08:06 11,5 C 9,4 C 76 % 1010,6 hPa 0,0 l/m 2 min 0 min 248 W/m 33,5 km/h (5 Bft)
06.05.2015 08:08 11,5 C 9,4 C 76 % 1010,6 hPa 0,0 l/m 2 min 0 min 251 W/m 18,8 km/h (3 Bft)
06.05.2015 08:10 11,6 C 9,4 C 76 % 1010,7 hPa 0,0 l/m 2 min 0 min 257 W/m 16,7 km/h (3 Bft)
06.05.2015 08:12 11,6 C 9,4 C 76 % 1010,7 hPa 0,0 l/m 2 min 0 min 262 W/m 31,4 km/h (5 Bft)
06.05.2015 08:14 11,6 C 9,4 C 76 % 1010,7 hPa 0,0 l/m 2 min 0 min 269 W/m 31,4 km/h (5 Bft)
06.05.2015 08:16 11,7 C 9,4 C 76 % 1010,6 hPa 0,0 l/m 2 min 0 min 273 W/m 16,7 km/h (3 Bft)
06.05.2015 08:18 11,7 C 10,0 C 76 % 1010,7 hPa 0,0 l/m 2 min 0 min 278 W/m 14,6 km/h (3 Bft)
06.05.2015 08:20 11,7 C 10,0 C 76 % 1010,7 hPa 0,0 l/m 2 min 0 min 285 W/m 18,8 km/h (3 Bft)
06.05.2015 08:22 11,7 C 10,0 C 76 % 1010,6 hPa 0,0 l/m 2 min 0 min 289 W/m 18,8 km/h (3 Bft)
06.05.2015 08:24 11,8 C 10,0 C 76 % 1010,6 hPa 0,0 l/m 2 min 0 min 296 W/m 20,9 km/h (4 Bft)
06.05.2015 08:26 11,8 C 10,0 C 76 % 1010,7 hPa 0,0 l/m 2 min 0 min 301 W/m 20,9 km/h (4 Bft)
06.05.2015 08:28 11,8 C 10,0 C 76 % 1010,6 hPa 0,0 l/m 2 min 0 min 307 W/m 18,8 km/h (3 Bft)
06.05.2015 08:30 11,9 C 10,0 C 76 % 1010,6 hPa 0,0 l/m 2 min 0 min 313 W/m 18,8 km/h (3 Bft)
06.05.2015 08:32 11,9 C 10,0 C 76 % 1010,7 hPa 0,0 l/m 2 min 0 min 317 W/m 23,0 km/h (4 Bft)
06.05.2015 08:34 11,9 C 10,0 C 75 % 1010,7 hPa 0,0 l/m 2 min 0 min 322 W/m 33,5 km/h (5 Bft)
06.05.2015 08:36 12,0 C 10,0 C 75 % 1010,7 hPa 0,0 l/m 2 min 0 min 328 W/m 23,0 km/h (4 Bft)
06.05.2015 08:38 12,0 C 10,0 C 75 % 1010,7 hPa 0,0 l/m 2 min 0 min 333 W/m 39,7 km/h (6 Bft)
06.05.2015 08:40 12,1 C 10,0 C 74 % 1010,7 hPa 0,0 l/m 2 min 0 min 339 W/m 41,8 km/h (6 Bft)
06.05.2015 08:42 12,2 C 10,0 C 74 % 1010,7 hPa 0,0 l/m 2 min 0 min 342 W/m 33,5 km/h (5 Bft)
06.05.2015 08:44 12,2 C 10,0 C 74 % 1010,6 hPa 0,0 l/m 2 min 0 min 348 W/m 23,0 km/h (4 Bft)
06.05.2015 08:46 12,3 C 10,0 C 74 % 1010,6 hPa 0,0 l/m 2 min 0 min 353 W/m 25,1 km/h (4 Bft)
06.05.2015 08:48 12,3 C 10,0 C 74 % 1010,7 hPa 0,0 l/m 2 min 0 min 360 W/m 25,1 km/h (4 Bft)
06.05.2015 08:50 12,4 C 10,0 C 74 % 1010,7 hPa 0,0 l/m 2 min 0 min 363 W/m 27,2 km/h (4 Bft)
06.05.2015 08:52 12,4 C 10,0 C 73 % 1010,7 hPa 0,0 l/m 2 min 0 min 369 W/m 37,7 km/h (5 Bft)
06.05.2015 08:54 12,5 C 10,0 C 73 % 1010,7 hPa 0,0 l/m 2 min 0 min 372 W/m 25,1 km/h (4 Bft)
06.05.2015 08:56 12,6 C 10,0 C 73 % 1010,7 hPa 0,0 l/m 2 min 0 min 378 W/m 25,1 km/h (4 Bft)
06.05.2015 08:58 12,6 C 10,0 C 73 % 1010,7 hPa 0,0 l/m 2 min 0 min 382 W/m 27,2 km/h (4 Bft)
06.05.2015 09:00 12,7 C 10,0 C 72 % 1010,7 hPa 0,0 l/m 2 min 0 min 386 W/m 33,5 km/h (5 Bft)
06.05.2015 09:02 12,7 C 10,0 C 72 % 1010,7 hPa 0,0 l/m 2 min 0 min 390 W/m 31,4 km/h (5 Bft)
06.05.2015 09:04 12,7 C 10,0 C 71 % 1010,7 hPa 0,0 l/m 2 min 0 min 396 W/m 31,4 km/h (5 Bft)
06.05.2015 09:06 12,8 C 10,0 C 71 % 1010,7 hPa 0,0 l/m 2 min 0 min 401 W/m 27,2 km/h (4 Bft)
06.05.2015 09:08 12,9 C 10,0 C 72 % 1010,7 hPa 0,0 l/m 2 min 0 min 405 W/m 20,9 km/h (4 Bft)
06.05.2015 09:10 12,9 C 10,0 C 72 % 1010,7 hPa 0,0 l/m 2 min 0 min 409 W/m 23,0 km/h (4 Bft)
06.05.2015 09:12 13,0 C 10,0 C 72 % 1010,7 hPa 0,0 l/m 2 min 0 min 411 W/m 37,7 km/h (5 Bft)
06.05.2015 09:14 13,1 C 10,6 C 71 % 1010,8 hPa 0,0 l/m 2 min 0 min 419 W/m 31,4 km/h (5 Bft)
06.05.2015 09:16 13,2 C 10,6 C 71 % 1010,7 hPa 0,0 l/m 2 min 0 min 424 W/m 20,9 km/h (4 Bft)
06.05.2015 09:18 13,3 C 10,6 C 70 % 1010,8 hPa 0,0 l/m 2 min 0 min 431 W/m 37,7 km/h (5 Bft)
06.05.2015 09:20 13,4 C 10,6 C 69 % 1010,7 hPa 0,0 l/m 2 min 0 min 437 W/m 25,1 km/h (4 Bft)
06.05.2015 09:22 13,5 C 10,6 C 69 % 1010,8 hPa 0,0 l/m 2 min 0 min 442 W/m 31,4 km/h (5 Bft)
06.05.2015 09:24 13,6 C 10,6 C 69 % 1010,8 hPa 0,0 l/m 2 min 0 min 446 W/m 31,4 km/h (5 Bft)
06.05.2015 09:26 13,7 C 10,6 C 69 % 1010,7 hPa 0,0 l/m 2 min 0 min 452 W/m 18,8 km/h (3 Bft)
06.05.2015 09:28 13,8 C 10,6 C 69 % 1010,9 hPa 0,0 l/m 2 min 0 min 455 W/m 33,5 km/h (5 Bft)
06.05.2015 09:30 13,9 C 10,6 C 68 % 1010,8 hPa 0,0 l/m 2 min 0 min 462 W/m 35,6 km/h (5 Bft)
06.05.2015 09:32 13,9 C 10,6 C 67 % 1010,8 hPa 0,0 l/m 2 min 0 min 468 W/m 39,7 km/h (6 Bft)
06.05.2015 09:34 14,0 C 10,6 C 67 % 1010,8 hPa 0,0 l/m 2 min 0 min 475 W/m 29,3 km/h (5 Bft)
06.05.2015 09:36 14,1 C 10,6 C 67 % 1010,9 hPa 0,0 l/m 2 min 0 min 480 W/m 20,9 km/h (4 Bft)
06.05.2015 09:38 14,2 C 10,6 C 67 % 1010,9 hPa 0,0 l/m 2 min 0 min 482 W/m 39,7 km/h (6 Bft)
06.05.2015 09:40 14,2 C 11,1 C 68 % 1010,9 hPa 0,0 l/m 2 min 0 min 480 W/m 23,0 km/h (4 Bft)
06.05.2015 09:42 14,2 C 11,1 C 67 % 1010,9 hPa 0,0 l/m 2 min 0 min 486 W/m 25,1 km/h (4 Bft)
06.05.2015 09:44 14,3 C 11,7 C 67 % 1010,9 hPa 0,0 l/m 2 min 0 min 494 W/m 20,9 km/h (4 Bft)
06.05.2015 09:46 14,4 C 11,7 C 66 % 1010,9 hPa 0,0 l/m 2 min 0 min 502 W/m 39,7 km/h (6 Bft)
06.05.2015 09:48 14,5 C 11,7 C 66 % 1011,0 hPa 0,0 l/m 2 min 0 min 511 W/m 37,7 km/h (5 Bft)
06.05.2015 09:50 14,5 C 11,7 C 65 % 1010,9 hPa 0,0 l/m 2 min 0 min 535 W/m 27,2 km/h (4 Bft)
06.05.2015 09:52 14,6 C 12,2 C 65 % 1010,9 hPa 0,0 l/m 2 min 0 min 571 W/m 33,5 km/h (5 Bft)
06.05.2015 09:54 14,7 C 11,7 C 65 % 1011,1 hPa 0,0 l/m 2 min 0 min 577 W/m 29,3 km/h (5 Bft)
06.05.2015 09:56 14,7 C 11,7 C 64 % 1010,9 hPa 0,0 l/m 2 min 0 min 577 W/m 31,4 km/h (5 Bft)
06.05.2015 09:58 14,8 C 11,7 C 64 % 1010,9 hPa 0,0 l/m 2 min 0 min 540 W/m 31,4 km/h (5 Bft)
06.05.2015 10:00 14,8 C 11,7 C 65 % 1010,9 hPa 0,0 l/m 2 min 0 min 553 W/m 25,1 km/h (4 Bft)
06.05.2015 10:02 14,9 C 11,7 C 65 % 1010,9 hPa 0,0 l/m 2 min 0 min 569 W/m 16,7 km/h (3 Bft)
06.05.2015 10:04 15,0 C 12,2 C 66 % 1010,9 hPa 0,0 l/m 2 min 0 min 559 W/m 43,9 km/h (6 Bft)
06.05.2015 10:06 15,1 C 11,7 C 64 % 1010,7 hPa 0,0 l/m 2 min 0 min 556 W/m 39,7 km/h (6 Bft)
06.05.2015 10:08 15,1 C 12,2 C 63 % 1010,7 hPa 0,0 l/m 2 min 0 min 572 W/m 27,2 km/h (4 Bft)
06.05.2015 10:10 15,2 C 12,2 C 64 % 1010,7 hPa 0,0 l/m 2 min 0 min 574 W/m 25,1 km/h (4 Bft)
06.05.2015 10:12 15,2 C 12,2 C 63 % 1010,7 hPa 0,0 l/m 2 min 0 min 564 W/m 39,7 km/h (6 Bft)
06.05.2015 10:14 15,2 C 12,2 C 62 % 1010,6 hPa 0,0 l/m 2 min 0 min 567 W/m 29,3 km/h (5 Bft)
06.05.2015 10:16 15,3 C 12,2 C 63 % 1010,6 hPa 0,0 l/m 2 min 0 min 570 W/m 25,1 km/h (4 Bft)
06.05.2015 10:18 15,3 C 12,2 C 62 % 1010,6 hPa 0,0 l/m 2 min 0 min 613 W/m 29,3 km/h (5 Bft)
06.05.2015 10:20 15,3 C 12,2 C 63 % 1010,6 hPa 0,0 l/m 2 min 0 min 626 W/m 35,6 km/h (5 Bft)
06.05.2015 10:22 15,4 C 12,2 C 62 % 1010,6 hPa 0,0 l/m 2 min 0 min 611 W/m 43,9 km/h (6 Bft)
06.05.2015 10:24 15,4 C 12,2 C 61 % 1010,7 hPa 0,0 l/m 2 min 0 min 644 W/m 41,8 km/h (6 Bft)
06.05.2015 10:26 15,4 C 12,2 C 62 % 1010,6 hPa 0,0 l/m 2 min 0 min 622 W/m 33,5 km/h (5 Bft)
06.05.2015 10:28 15,4 C 12,2 C 61 % 1010,6 hPa 0,0 l/m 2 min 0 min 626 W/m 41,8 km/h (6 Bft)
06.05.2015 10:30 15,5 C 12,2 C 61 % 1010,6 hPa 0,0 l/m 2 min 0 min 613 W/m 41,8 km/h (6 Bft)
06.05.2015 10:32 15,5 C 12,2 C 62 % 1010,7 hPa 0,0 l/m 2 min 0 min 580 W/m 31,4 km/h (5 Bft)
06.05.2015 10:34 15,6 C 12,2 C 62 % 1010,6 hPa 0,0 l/m 2 min 0 min 609 W/m 37,7 km/h (5 Bft)
06.05.2015 10:36 15,6 C 12,2 C 61 % 1010,7 hPa 0,0 l/m 2 min 0 min 617 W/m 31,4 km/h (5 Bft)
06.05.2015 10:38 15,6 C 12,2 C 61 % 1010,6 hPa 0,0 l/m 2 min 0 min 402 W/m 31,4 km/h (5 Bft)
06.05.2015 10:40 15,6 C 12,2 C 61 % 1010,6 hPa 0,0 l/m 2 min 0 min 455 W/m 35,6 km/h (5 Bft)
06.05.2015 10:42 15,6 C 12,2 C 61 % 1010,6 hPa 0,0 l/m 2 min 0 min 658 W/m 37,7 km/h (5 Bft)
06.05.2015 10:44 15,6 C 12,2 C 61 % 1010,5 hPa 0,0 l/m 2 min 0 min 665 W/m 41,8 km/h (6 Bft)
06.05.2015 10:46 15,7 C 12,8 C 61 % 1010,5 hPa 0,0 l/m 2 min 0 min 705 W/m 25,1 km/h (4 Bft)
06.05.2015 10:48 15,7 C 12,2 C 60 % 1010,6 hPa 0,0 l/m 2 min 0 min 518 W/m 39,7 km/h (6 Bft)
06.05.2015 10:50 15,7 C 12,2 C 61 % 1010,6 hPa 0,0 l/m 2 min 0 min 417 W/m 23,0 km/h (4 Bft)
06.05.2015 10:52 15,7 C 12,8 C 62 % 1010,6 hPa 0,0 l/m 2 min 0 min 702 W/m 27,2 km/h (4 Bft)
06.05.2015 10:54 15,7 C 12,2 C 61 % 1010,6 hPa 0,0 l/m 0 min 0 min 254 W/m 37,7 km/h (5 Bft)
06.05.2015 10:56 15,7 C 12,8 C 61 % 1010,5 hPa 0,0 l/m 2 min 0 min 701 W/m 20,9 km/h (4 Bft)
06.05.2015 10:58 15,8 C 12,8 C 62 % 1010,6 hPa 0,0 l/m 2 min 0 min 671 W/m 33,5 km/h (5 Bft)
06.05.2015 11:00 15,9 C 12,8 C 61 % 1010,5 hPa 0,0 l/m 2 min 0 min 671 W/m 33,5 km/h (5 Bft)
06.05.2015 11:02 15,9 C 12,8 C 60 % 1010,5 hPa 0,0 l/m 0 min 0 min 256 W/m 35,6 km/h (5 Bft)
06.05.2015 11:04 15,9 C 12,8 C 60 % 1010,6 hPa 0,0 l/m 2 min 0 min 372 W/m 46,0 km/h (6 Bft)
06.05.2015 11:06 15,9 C 12,8 C 60 % 1010,6 hPa 0,0 l/m 2 min 0 min 810 W/m 27,2 km/h (4 Bft)
06.05.2015 11:08 15,9 C 12,8 C 60 % 1010,6 hPa 0,0 l/m 0 min 0 min 222 W/m 33,5 km/h (5 Bft)
06.05.2015 11:10 15,9 C 12,8 C 59 % 1010,6 hPa 0,0 l/m 0 min 0 min 178 W/m 35,6 km/h (5 Bft)
06.05.2015 11:12 15,8 C 12,8 C 59 % 1010,6 hPa 0,0 l/m 0 min 0 min 244 W/m 35,6 km/h (5 Bft)
06.05.2015 11:14 15,8 C 12,8 C 60 % 1010,7 hPa 0,0 l/m 0 min 0 min 254 W/m 31,4 km/h (5 Bft)
06.05.2015 11:16 15,8 C 12,8 C 60 % 1010,6 hPa 0,0 l/m 0 min 0 min 229 W/m 37,7 km/h (5 Bft)
06.05.2015 11:18 15,7 C 12,8 C 59 % 1010,6 hPa 0,0 l/m 0 min 0 min 281 W/m 43,9 km/h (6 Bft)
06.05.2015 11:20 15,7 C 12,8 C 60 % 1010,7 hPa 0,0 l/m 2 min 0 min 361 W/m 16,7 km/h (3 Bft)
06.05.2015 11:22 15,7 C 12,8 C 60 % 1010,6 hPa 0,0 l/m 0 min 0 min 347 W/m 41,8 km/h (6 Bft)
06.05.2015 11:24 15,7 C 12,8 C 59 % 1010,7 hPa 0,0 l/m 0 min 0 min 291 W/m 35,6 km/h (5 Bft)
06.05.2015 11:26 15,6 C 12,8 C 59 % 1010,6 hPa 0,0 l/m 0 min 0 min 251 W/m 35,6 km/h (5 Bft)
06.05.2015 11:28 15,6 C 12,8 C 59 % 1010,6 hPa 0,0 l/m 0 min 0 min 304 W/m 25,1 km/h (4 Bft)
06.05.2015 11:30 15,7 C 13,3 C 60 % 1010,6 hPa 0,0 l/m 2 min 0 min 542 W/m 35,6 km/h (5 Bft)
06.05.2015 11:32 15,7 C 13,3 C 61 % 1010,5 hPa 0,0 l/m 2 min 0 min 819 W/m 41,8 km/h (6 Bft)
06.05.2015 11:34 15,7 C 13,3 C 58 % 1010,6 hPa 0,0 l/m 2 min 0 min 427 W/m 46,0 km/h (6 Bft)
06.05.2015 11:36 15,7 C 13,3 C 58 % 1010,7 hPa 0,0 l/m 2 min 0 min 367 W/m 50,2 km/h (7 Bft)
06.05.2015 11:38 15,7 C 13,3 C 59 % 1010,6 hPa 0,0 l/m 0 min 0 min 287 W/m 33,5 km/h (5 Bft)
06.05.2015 11:40 15,7 C 13,3 C 61 % 1010,6 hPa 0,0 l/m 2 min 0 min 740 W/m 29,3 km/h (5 Bft)
06.05.2015 11:42 15,8 C 13,3 C 60 % 1010,6 hPa 0,0 l/m 2 min 0 min 627 W/m 31,4 km/h (5 Bft)
06.05.2015 11:44 15,8 C 13,3 C 60 % 1010,7 hPa 0,0 l/m 0 min 0 min 327 W/m 25,1 km/h (4 Bft)
06.05.2015 11:46 15,8 C 13,3 C 60 % 1010,6 hPa 0,0 l/m 0 min 0 min 332 W/m 35,6 km/h (5 Bft)
06.05.2015 11:48 15,8 C 13,3 C 60 % 1010,6 hPa 0,0 l/m 2 min 0 min 402 W/m 37,7 km/h (5 Bft)
06.05.2015 11:50 15,8 C 13,3 C 60 % 1010,6 hPa 0,0 l/m 0 min 0 min 358 W/m 33,5 km/h (5 Bft)
06.05.2015 11:52 15,9 C 13,9 C 61 % 1010,6 hPa 0,0 l/m 2 min 0 min 414 W/m 29,3 km/h (5 Bft)
06.05.2015 11:54 15,9 C 13,9 C 60 % 1010,5 hPa 0,0 l/m 2 min 0 min 620 W/m 37,7 km/h (5 Bft)
06.05.2015 11:56 15,9 C 13,3 C 59 % 1010,6 hPa 0,0 l/m 0 min 0 min 318 W/m 37,7 km/h (5 Bft)
06.05.2015 11:58 16,0 C 13,9 C 60 % 1010,6 hPa 0,0 l/m 0 min 0 min 366 W/m 35,6 km/h (5 Bft)
06.05.2015 12:00 16,0 C 13,3 C 60 % 1010,6 hPa 0,0 l/m 0 min 0 min 299 W/m 25,1 km/h (4 Bft)
06.05.2015 12:02 16,0 C 13,3 C 59 % 1010,6 hPa 0,0 l/m 0 min 0 min 267 W/m 35,6 km/h (5 Bft)
06.05.2015 12:06 15,9 C 13,3 C 60 % 1010,6 hPa 0,0 l/m 0 min 0 min 242 W/m 29,3 km/h (5 Bft)
06.05.2015 12:08 15,9 C 13,3 C 60 % 1010,6 hPa 0,0 l/m 0 min 0 min 263 W/m 41,8 km/h (6 Bft)
06.05.2015 12:10 15,9 C 13,3 C 58 % 1010,6 hPa 0,0 l/m 0 min 0 min 284 W/m 46,0 km/h (6 Bft)
06.05.2015 12:12 15,9 C 13,3 C 58 % 1010,7 hPa 0,0 l/m 0 min 0 min 274 W/m 35,6 km/h (5 Bft)
06.05.2015 12:14 15,9 C 13,9 C 59 % 1010,6 hPa 0,0 l/m 0 min 0 min 274 W/m 37,7 km/h (5 Bft)
06.05.2015 12:16 16,0 C 13,9 C 59 % 1010,6 hPa 0,0 l/m 0 min 0 min 274 W/m 31,4 km/h (5 Bft)
06.05.2015 12:18 16,1 C 13,9 C 57 % 1010,6 hPa 0,0 l/m 0 min 0 min 344 W/m 37,7 km/h (5 Bft)
06.05.2015 12:20 16,1 C 13,9 C 58 % 1010,6 hPa 0,0 l/m 0 min 0 min 352 W/m 33,5 km/h (5 Bft)
06.05.2015 12:22 16,2 C 13,9 C 59 % 1010,6 hPa 0,0 l/m 0 min 0 min 380 W/m 29,3 km/h (5 Bft)
06.05.2015 12:24 16,3 C 13,9 C 59 % 1010,6 hPa 0,0 l/m 0 min 0 min 370 W/m 43,9 km/h (6 Bft)
06.05.2015 12:26 16,4 C 13,9 C 59 % 1010,5 hPa 0,0 l/m 2 min 0 min 960 W/m 37,7 km/h (5 Bft)
06.05.2015 12:28 16,6 C 14,4 C 61 % 1010,6 hPa 0,0 l/m 2 min 0 min 936 W/m 25,1 km/h (4 Bft)
06.05.2015 12:30 16,7 C 14,4 C 59 % 1010,5 hPa 0,0 l/m 2 min 0 min 915 W/m 39,7 km/h (6 Bft)
06.05.2015 12:32 16,9 C 14,4 C 59 % 1010,4 hPa 0,0 l/m 2 min 0 min 914 W/m 33,5 km/h (5 Bft)
06.05.2015 12:34 17,1 C 14,4 C 57 % 1010,6 hPa 0,0 l/m 2 min 0 min 914 W/m 31,4 km/h (5 Bft)
06.05.2015 12:36 17,1 C 14,4 C 57 % 1010,5 hPa 0,0 l/m 0 min 0 min 260 W/m 33,5 km/h (5 Bft)
06.05.2015 12:38 17,1 C 13,9 C 57 % 1010,5 hPa 0,0 l/m 0 min 0 min 268 W/m 46,0 km/h (6 Bft)
06.05.2015 12:40 16,9 C 13,9 C 55 % 1010,6 hPa 0,0 l/m 0 min 0 min 245 W/m 35,6 km/h (5 Bft)
06.05.2015 12:42 16,8 C 13,9 C 56 % 1010,5 hPa 0,0 l/m 0 min 0 min 274 W/m 29,3 km/h (5 Bft)
06.05.2015 12:44 16,8 C 13,9 C 57 % 1010,5 hPa 0,0 l/m 2 min 0 min 435 W/m 37,7 km/h (5 Bft)
06.05.2015 12:46 16,8 C 13,9 C 59 % 1010,4 hPa 0,0 l/m 2 min 0 min 886 W/m 18,8 km/h (3 Bft)
06.05.2015 12:48 17,0 C 14,4 C 58 % 1010,4 hPa 0,0 l/m 2 min 0 min 886 W/m 27,2 km/h (4 Bft)
06.05.2015 12:50 17,1 C 14,4 C 58 % 1010,3 hPa 0,0 l/m 2 min 0 min 454 W/m 16,7 km/h (3 Bft)
06.05.2015 12:52 17,1 C 14,4 C 58 % 1010,4 hPa 0,0 l/m 0 min 0 min 269 W/m 29,3 km/h (5 Bft)
06.05.2015 12:54 17,2 C 14,4 C 57 % 1010,4 hPa 0,0 l/m 0 min 0 min 341 W/m 37,7 km/h (5 Bft)
06.05.2015 12:56 17,2 C 14,4 C 58 % 1010,4 hPa 0,0 l/m 0 min 0 min 307 W/m 37,7 km/h (5 Bft)
06.05.2015 12:58 17,2 C 14,4 C 57 % 1010,4 hPa 0,0 l/m 0 min 0 min 281 W/m 39,7 km/h (6 Bft)
06.05.2015 13:00 17,1 C 13,9 C 57 % 1010,4 hPa 0,0 l/m 0 min 0 min 278 W/m 39,7 km/h (6 Bft)
06.05.2015 13:02 16,9 C 13,9 C 56 % 1010,5 hPa 0,0 l/m 0 min 0 min 259 W/m 35,6 km/h (5 Bft)
06.05.2015 13:04 16,7 C 13,9 C 56 % 1010,4 hPa 0,0 l/m 0 min 0 min 311 W/m 39,7 km/h (6 Bft)
06.05.2015 13:06 16,7 C 14,4 C 58 % 1010,3 hPa 0,0 l/m 2 min 0 min 464 W/m 37,7 km/h (5 Bft)
06.05.2015 13:08 16,7 C 14,4 C 58 % 1010,4 hPa 0,0 l/m 2 min 0 min 434 W/m 33,5 km/h (5 Bft)
06.05.2015 13:10 16,7 C 14,4 C 58 % 1010,4 hPa 0,0 l/m 0 min 0 min 338 W/m 29,3 km/h (5 Bft)
06.05.2015 13:12 16,6 C 14,4 C 58 % 1010,3 hPa 0,0 l/m 0 min 0 min 325 W/m 25,1 km/h (4 Bft)
06.05.2015 13:14 16,6 C 14,4 C 59 % 1010,2 hPa 0,0 l/m 0 min 0 min 303 W/m 31,4 km/h (5 Bft)
06.05.2015 13:16 16,6 C 14,4 C 60 % 1010,3 hPa 0,0 l/m 0 min 0 min 284 W/m 18,8 km/h (3 Bft)
06.05.2015 13:18 16,6 C 14,4 C 59 % 1010,3 hPa 0,0 l/m 0 min 0 min 231 W/m 33,5 km/h (5 Bft)
06.05.2015 13:20 16,5 C 13,9 C 57 % 1010,2 hPa 0,0 l/m 0 min 0 min 237 W/m 39,7 km/h (6 Bft)
06.05.2015 13:22 16,4 C 13,9 C 57 % 1010,1 hPa 0,0 l/m 0 min 0 min 333 W/m 39,7 km/h (6 Bft)
06.05.2015 13:24 16,4 C 13,9 C 58 % 1010,2 hPa 0,0 l/m 2 min 0 min 403 W/m 41,8 km/h (6 Bft)
06.05.2015 13:26 16,4 C 14,4 C 59 % 1010,2 hPa 0,0 l/m 2 min 0 min 450 W/m 31,4 km/h (5 Bft)
06.05.2015 13:28 16,4 C 14,4 C 60 % 1010,2 hPa 0,0 l/m 2 min 0 min 478 W/m 27,2 km/h (4 Bft)
06.05.2015 13:30 16,6 C 15,6 C 59 % 1010,1 hPa 0,0 l/m 2 min 0 min 478 W/m 18,8 km/h (3 Bft)
06.05.2015 13:32 16,6 C 15,0 C 59 % 1010,1 hPa 0,0 l/m 2 min 0 min 404 W/m 29,3 km/h (5 Bft)
06.05.2015 13:34 16,7 C 15,0 C 59 % 1010,1 hPa 0,0 l/m 0 min 0 min 293 W/m 27,2 km/h (4 Bft)
06.05.2015 13:36 16,7 C 14,4 C 57 % 1010,0 hPa 0,0 l/m 0 min 0 min 283 W/m 35,6 km/h (5 Bft)
06.05.2015 13:38 16,7 C 14,4 C 57 % 1010,2 hPa 0,0 l/m 0 min 0 min 307 W/m 37,7 km/h (5 Bft)
06.05.2015 13:40 16,7 C 14,4 C 57 % 1010,0 hPa 0,0 l/m 0 min 0 min 328 W/m 46,0 km/h (6 Bft)
06.05.2015 13:42 16,7 C 14,4 C 57 % 1010,0 hPa 0,0 l/m 0 min 0 min 351 W/m 46,0 km/h (6 Bft)
06.05.2015 13:44 16,8 C 14,4 C 58 % 1010,1 hPa 0,0 l/m 0 min 0 min 330 W/m 35,6 km/h (5 Bft)
06.05.2015 13:46 16,9 C 14,4 C 58 % 1010,0 hPa 0,0 l/m 0 min 0 min 330 W/m 31,4 km/h (5 Bft)
06.05.2015 13:48 17,0 C 15,0 C 58 % 1010,0 hPa 0,0 l/m 2 min 0 min 803 W/m 39,7 km/h (6 Bft)
06.05.2015 13:50 17,2 C 15,0 C 57 % 1009,9 hPa 0,0 l/m 2 min 0 min 1055 W/m 29,3 km/h (5 Bft)
06.05.2015 13:52 17,3 C 15,0 C 57 % 1010,0 hPa 0,0 l/m 2 min 0 min 966 W/m 37,7 km/h (5 Bft)
06.05.2015 13:54 17,4 C 15,0 C 55 % 1009,9 hPa 0,0 l/m 0 min 0 min 284 W/m 35,6 km/h (5 Bft)
06.05.2015 13:56 17,4 C 14,4 C 56 % 1009,9 hPa 0,0 l/m 0 min 0 min 248 W/m 27,2 km/h (4 Bft)
06.05.2015 13:58 17,3 C 14,4 C 57 % 1010,1 hPa 0,0 l/m 0 min 0 min 213 W/m 27,2 km/h (4 Bft)
06.05.2015 14:00 17,3 C 13,9 C 56 % 1010,1 hPa 0,0 l/m 0 min 0 min 168 W/m 35,6 km/h (5 Bft)
06.05.2015 14:02 17,1 C 13,3 C 58 % 1010,3 hPa 0,0 l/m 0 min 2 min 117 W/m 54,4 km/h (7 Bft)
06.05.2015 14:04 16,6 C 12,8 C 63 % 1010,6 hPa 0,0 l/m 0 min 2 min 103 W/m 58,6 km/h (7 Bft)
06.05.2015 14:06 16,0 C 12,2 C 66 % 1010,7 hPa 0,0 l/m 0 min 2 min 136 W/m 43,9 km/h (6 Bft)
06.05.2015 14:08 15,6 C 11,7 C 68 % 1010,7 hPa 0,0 l/m 0 min 2 min 179 W/m 43,9 km/h (6 Bft)
06.05.2015 14:10 15,1 C 11,1 C 70 % 1010,8 hPa 0,0 l/m 0 min 2 min 205 W/m 43,9 km/h (6 Bft)
06.05.2015 14:12 14,6 C 11,7 C 72 % 1010,8 hPa 0,2 l/m 0 min 2 min 237 W/m 29,3 km/h (5 Bft)
06.05.2015 14:14 14,2 C 11,7 C 74 % 1010,7 hPa 0,0 l/m 2 min 2 min 429 W/m 41,8 km/h (6 Bft)
06.05.2015 14:16 14,1 C 12,2 C 75 % 1010,7 hPa 0,0 l/m 2 min 2 min 487 W/m 37,7 km/h (5 Bft)
06.05.2015 14:18 13,9 C 12,2 C 76 % 1010,7 hPa 0,0 l/m 2 min 0 min 504 W/m 35,6 km/h (5 Bft)
06.05.2015 14:20 13,7 C 12,2 C 77 % 1010,7 hPa 0,0 l/m 0 min 0 min 365 W/m 35,6 km/h (5 Bft)
06.05.2015 14:22 13,7 C 12,2 C 77 % 1010,6 hPa 0,0 l/m 2 min 0 min 441 W/m 31,4 km/h (5 Bft)
06.05.2015 14:24 13,7 C 12,2 C 77 % 1010,7 hPa 0,0 l/m 2 min 2 min 673 W/m 29,3 km/h (5 Bft)
06.05.2015 14:26 13,7 C 12,2 C 77 % 1010,7 hPa 0,0 l/m 2 min 0 min 422 W/m 25,1 km/h (4 Bft)
06.05.2015 14:28 13,8 C 12,8 C 78 % 1010,6 hPa 0,0 l/m 2 min 0 min 709 W/m 29,3 km/h (5 Bft)
06.05.2015 14:30 14,0 C 12,8 C 78 % 1010,4 hPa 0,0 l/m 2 min 0 min 846 W/m 20,9 km/h (4 Bft)
06.05.2015 14:32 14,2 C 13,9 C 78 % 1010,5 hPa 0,0 l/m 2 min 0 min 824 W/m 14,6 km/h (3 Bft)
06.05.2015 14:34 14,4 C 13,9 C 78 % 1010,4 hPa 0,0 l/m 2 min 0 min 809 W/m 29,3 km/h (5 Bft)
06.05.2015 14:36 14,6 C 14,4 C 77 % 1010,4 hPa 0,0 l/m 2 min 0 min 800 W/m 25,1 km/h (4 Bft)
06.05.2015 14:38 14,8 C 13,9 C 75 % 1010,5 hPa 0,0 l/m 2 min 0 min 804 W/m 33,5 km/h (5 Bft)
06.05.2015 14:40 15,0 C 13,9 C 73 % 1010,4 hPa 0,0 l/m 2 min 0 min 784 W/m 29,3 km/h (5 Bft)
06.05.2015 14:42 15,2 C 13,3 C 72 % 1010,3 hPa 0,0 l/m 2 min 0 min 752 W/m 27,2 km/h (4 Bft)
06.05.2015 14:44 15,3 C 13,3 C 72 % 1010,3 hPa 0,0 l/m 2 min 0 min 719 W/m 27,2 km/h (4 Bft)
06.05.2015 14:46 15,4 C 13,3 C 71 % 1010,3 hPa 0,0 l/m 2 min 0 min 708 W/m 25,1 km/h (4 Bft)
06.05.2015 14:48 15,6 C 13,3 C 70 % 1010,4 hPa 0,0 l/m 2 min 0 min 478 W/m 23,0 km/h (4 Bft)
06.05.2015 14:50 15,6 C 13,3 C 70 % 1010,5 hPa 0,0 l/m 0 min 0 min 266 W/m 33,5 km/h (5 Bft)
06.05.2015 14:52 15,6 C 13,3 C 70 % 1010,5 hPa 0,0 l/m 0 min 0 min 275 W/m 27,2 km/h (4 Bft)
06.05.2015 14:54 15,5 C 13,3 C 69 % 1010,5 hPa 0,0 l/m 0 min 0 min 283 W/m 41,8 km/h (6 Bft)
06.05.2015 14:56 15,5 C 13,3 C 69 % 1010,7 hPa 0,0 l/m 0 min 0 min 299 W/m 35,6 km/h (5 Bft)
06.05.2015 14:58 15,4 C 13,3 C 69 % 1010,5 hPa 0,0 l/m 0 min 0 min 304 W/m 41,8 km/h (6 Bft)
06.05.2015 15:00 15,3 C 13,3 C 70 % 1010,6 hPa 0,0 l/m 0 min 0 min 327 W/m 31,4 km/h (5 Bft)
06.05.2015 15:02 15,2 C 13,3 C 70 % 1010,5 hPa 0,0 l/m 0 min 0 min 277 W/m 33,5 km/h (5 Bft)
06.05.2015 15:04 15,2 C 13,3 C 70 % 1010,5 hPa 0,0 l/m 0 min 0 min 292 W/m 31,4 km/h (5 Bft)
06.05.2015 15:06 15,2 C 13,3 C 71 % 1010,5 hPa 0,0 l/m 2 min 0 min 392 W/m 29,3 km/h (5 Bft)
06.05.2015 15:08 15,2 C 13,9 C 71 % 1010,5 hPa 0,0 l/m 2 min 0 min 410 W/m 31,4 km/h (5 Bft)
06.05.2015 15:10 15,3 C 13,9 C 71 % 1010,4 hPa 0,0 l/m 2 min 0 min 410 W/m 48,1 km/h (6 Bft)
06.05.2015 15:12 15,3 C 13,3 C 71 % 1010,3 hPa 0,0 l/m 2 min 2 min 410 W/m 37,7 km/h (5 Bft)
06.05.2015 15:14 15,4 C 13,3 C 71 % 1010,4 hPa 0,0 l/m 2 min 2 min 504 W/m 39,7 km/h (6 Bft)
06.05.2015 15:16 15,4 C 13,3 C 72 % 1010,4 hPa 0,0 l/m 2 min 2 min 792 W/m 46,0 km/h (6 Bft)
06.05.2015 15:18 15,6 C 13,3 C 71 % 1010,4 hPa 0,0 l/m 2 min 0 min 761 W/m 37,7 km/h (5 Bft)
06.05.2015 15:20 15,7 C 13,9 C 72 % 1010,3 hPa 0,0 l/m 2 min 0 min 750 W/m 29,3 km/h (5 Bft)
06.05.2015 15:22 15,8 C 13,9 C 72 % 1010,4 hPa 0,0 l/m 2 min 0 min 749 W/m 37,7 km/h (5 Bft)
06.05.2015 15:24 15,9 C 13,9 C 71 % 1010,4 hPa 0,0 l/m 2 min 0 min 749 W/m 20,9 km/h (4 Bft)
06.05.2015 15:26 16,0 C 13,9 C 70 % 1010,3 hPa 0,0 l/m 2 min 0 min 747 W/m 52,3 km/h (7 Bft)
06.05.2015 15:28 16,1 C 13,9 C 69 % 1010,3 hPa 0,0 l/m 2 min 0 min 746 W/m 35,6 km/h (5 Bft)
06.05.2015 15:30 16,2 C 13,9 C 69 % 1010,3 hPa 0,0 l/m 2 min 0 min 749 W/m 29,3 km/h (5 Bft)
06.05.2015 15:32 16,3 C 13,9 C 69 % 1010,3 hPa 0,0 l/m 2 min 0 min 751 W/m 20,9 km/h (4 Bft)
06.05.2015 15:34 16,4 C 13,9 C 66 % 1010,3 hPa 0,0 l/m 2 min 0 min 749 W/m 41,8 km/h (6 Bft)
06.05.2015 15:36 16,5 C 13,9 C 64 % 1010,3 hPa 0,0 l/m 2 min 0 min 741 W/m 46,0 km/h (6 Bft)
06.05.2015 15:38 16,6 C 13,9 C 66 % 1010,4 hPa 0,0 l/m 2 min 0 min 728 W/m 39,7 km/h (6 Bft)
06.05.2015 15:40 16,6 C 13,9 C 64 % 1010,1 hPa 0,0 l/m 2 min 0 min 684 W/m 35,6 km/h (5 Bft)
06.05.2015 15:42 16,6 C 13,9 C 64 % 1010,0 hPa 0,0 l/m 2 min 0 min 627 W/m 54,4 km/h (7 Bft)
06.05.2015 15:44 16,6 C 13,9 C 63 % 1010,0 hPa 0,0 l/m 2 min 0 min 503 W/m 41,8 km/h (6 Bft)
06.05.2015 15:46 16,6 C 13,9 C 63 % 1009,9 hPa 0,0 l/m 2 min 0 min 543 W/m 46,0 km/h (6 Bft)
06.05.2015 15:48 16,6 C 13,9 C 63 % 1010,3 hPa 0,0 l/m 2 min 0 min 551 W/m 46,0 km/h (6 Bft)
06.05.2015 15:50 16,5 C 13,9 C 62 % 1010,1 hPa 0,0 l/m 2 min 0 min 632 W/m 39,7 km/h (6 Bft)
06.05.2015 15:52 16,5 C 13,9 C 62 % 1010,1 hPa 0,0 l/m 2 min 0 min 677 W/m 62,8 km/h (8 Bft)
06.05.2015 15:54 16,6 C 14,4 C 63 % 1009,9 hPa 0,0 l/m 2 min 0 min 699 W/m 39,7 km/h (6 Bft)
06.05.2015 15:56 16,6 C 14,4 C 63 % 1010,1 hPa 0,0 l/m 2 min 0 min 767 W/m 52,3 km/h (7 Bft)
06.05.2015 15:58 16,7 C 14,4 C 63 % 1009,9 hPa 0,0 l/m 2 min 0 min 646 W/m 43,9 km/h (6 Bft)
06.05.2015 16:00 16,8 C 14,4 C 62 % 1010,1 hPa 0,0 l/m 2 min 0 min 509 W/m 46,0 km/h (6 Bft)
06.05.2015 16:02 16,8 C 14,4 C 62 % 1009,8 hPa 0,0 l/m 2 min 0 min 521 W/m 46,0 km/h (6 Bft)
06.05.2015 16:04 16,9 C 14,4 C 61 % 1009,9 hPa 0,0 l/m 2 min 0 min 618 W/m 43,9 km/h (6 Bft)
06.05.2015 16:06 16,8 C 13,9 C 60 % 1009,9 hPa 0,0 l/m 0 min 0 min 295 W/m 41,8 km/h (6 Bft)
06.05.2015 16:08 16,8 C 13,9 C 61 % 1009,8 hPa 0,0 l/m 0 min 0 min 257 W/m 37,7 km/h (5 Bft)
06.05.2015 16:10 16,7 C 13,9 C 61 % 1009,9 hPa 0,0 l/m 2 min 0 min 362 W/m 43,9 km/h (6 Bft)
06.05.2015 16:12 16,6 C 13,9 C 60 % 1009,9 hPa 0,0 l/m 2 min 0 min 383 W/m 46,0 km/h (6 Bft)
06.05.2015 16:14 16,6 C 14,4 C 61 % 1009,9 hPa 0,0 l/m 2 min 0 min 563 W/m 41,8 km/h (6 Bft)
06.05.2015 16:16 16,6 C 14,4 C 61 % 1009,8 hPa 0,0 l/m 2 min 0 min 815 W/m 43,9 km/h (6 Bft)
06.05.2015 16:18 16,7 C 14,4 C 61 % 1009,8 hPa 0,0 l/m 2 min 0 min 762 W/m 43,9 km/h (6 Bft)
06.05.2015 16:20 16,8 C 14,4 C 61 % 1009,9 hPa 0,0 l/m 2 min 0 min 779 W/m 46,0 km/h (6 Bft)
06.05.2015 16:22 16,9 C 14,4 C 60 % 1009,9 hPa 0,0 l/m 2 min 0 min 734 W/m 46,0 km/h (6 Bft)
06.05.2015 16:24 17,0 C 14,4 C 56 % 1010,0 hPa 0,0 l/m 2 min 0 min 711 W/m 62,8 km/h (8 Bft)
06.05.2015 16:26 16,9 C 13,9 C 54 % 1010,0 hPa 0,0 l/m 2 min 0 min 703 W/m 73,2 km/h (8 Bft)
06.05.2015 16:28 16,9 C 13,9 C 55 % 1010,0 hPa 0,0 l/m 2 min 0 min 700 W/m 54,4 km/h (7 Bft)
06.05.2015 16:30 16,8 C 13,9 C 55 % 1010,1 hPa 0,0 l/m 2 min 0 min 698 W/m 50,2 km/h (7 Bft)
06.05.2015 16:32 16,6 C 13,3 C 55 % 1010,1 hPa 0,0 l/m 2 min 0 min 652 W/m 52,3 km/h (7 Bft)
06.05.2015 16:34 16,5 C 13,3 C 57 % 1010,1 hPa 0,0 l/m 2 min 0 min 476 W/m 48,1 km/h (6 Bft)
06.05.2015 16:36 16,4 C 13,3 C 58 % 1010,1 hPa 0,0 l/m 2 min 0 min 476 W/m 37,7 km/h (5 Bft)
06.05.2015 16:38 16,3 C 13,3 C 58 % 1010,1 hPa 0,0 l/m 2 min 0 min 575 W/m 39,7 km/h (6 Bft)
06.05.2015 16:40 16,2 C 13,3 C 58 % 1010,2 hPa 0,0 l/m 2 min 0 min 354 W/m 37,7 km/h (5 Bft)
06.05.2015 16:42 16,1 C 13,3 C 59 % 1010,1 hPa 0,0 l/m 2 min 0 min 544 W/m 46,0 km/h (6 Bft)
06.05.2015 16:44 16,1 C 13,3 C 59 % 1010,1 hPa 0,0 l/m 2 min 0 min 731 W/m 39,7 km/h (6 Bft)
06.05.2015 16:46 16,1 C 13,9 C 59 % 1010,1 hPa 0,0 l/m 2 min 0 min 691 W/m 31,4 km/h (5 Bft)
06.05.2015 16:48 16,2 C 13,9 C 59 % 1010,1 hPa 0,0 l/m 2 min 0 min 658 W/m 46,0 km/h (6 Bft)
06.05.2015 16:50 16,2 C 13,9 C 58 % 1010,0 hPa 0,0 l/m 2 min 0 min 633 W/m 46,0 km/h (6 Bft)
06.05.2015 16:52 16,3 C 13,3 C 59 % 1010,0 hPa 0,0 l/m 2 min 0 min 614 W/m 33,5 km/h (5 Bft)
06.05.2015 16:54 16,3 C 13,3 C 59 % 1010,1 hPa 0,0 l/m 2 min 0 min 600 W/m 43,9 km/h (6 Bft)
06.05.2015 16:56 16,4 C 13,3 C 58 % 1010,1 hPa 0,0 l/m 2 min 0 min 590 W/m 43,9 km/h (6 Bft)
06.05.2015 16:58 16,4 C 13,3 C 58 % 1010,1 hPa 0,0 l/m 2 min 0 min 581 W/m 54,4 km/h (7 Bft)
06.05.2015 17:00 16,4 C 13,3 C 58 % 1010,0 hPa 0,0 l/m 2 min 0 min 576 W/m 46,0 km/h (6 Bft)
06.05.2015 17:02 16,4 C 13,3 C 57 % 1009,9 hPa 0,0 l/m 2 min 0 min 567 W/m 39,7 km/h (6 Bft)
06.05.2015 17:04 16,5 C 13,3 C 58 % 1010,1 hPa 0,0 l/m 2 min 0 min 561 W/m 46,0 km/h (6 Bft)
06.05.2015 17:06 16,5 C 13,3 C 57 % 1010,1 hPa 0,0 l/m 2 min 0 min 548 W/m 39,7 km/h (6 Bft)
06.05.2015 17:08 16,6 C 13,3 C 58 % 1010,3 hPa 0,0 l/m 2 min 0 min 547 W/m 56,5 km/h (7 Bft)
06.05.2015 17:10 16,6 C 13,3 C 58 % 1010,1 hPa 0,0 l/m 2 min 0 min 548 W/m 46,0 km/h (6 Bft)
06.05.2015 17:12 16,6 C 13,3 C 57 % 1010,3 hPa 0,0 l/m 2 min 0 min 500 W/m 39,7 km/h (6 Bft)
06.05.2015 17:14 16,6 C 13,3 C 58 % 1010,3 hPa 0,0 l/m 0 min 0 min 226 W/m 43,9 km/h (6 Bft)
06.05.2015 17:16 16,5 C 13,3 C 58 % 1010,3 hPa 0,0 l/m 0 min 0 min 139 W/m 41,8 km/h (6 Bft)
06.05.2015 17:18 16,4 C 12,8 C 58 % 1010,6 hPa 0,0 l/m 0 min 0 min 91 W/m 43,9 km/h (6 Bft)
06.05.2015 17:20 16,2 C 12,8 C 59 % 1010,8 hPa 0,0 l/m 0 min 0 min 43 W/m 50,2 km/h (7 Bft)
06.05.2015 17:22 16,1 C 12,8 C 59 % 1011,2 hPa 0,0 l/m 0 min 0 min 23 W/m 46,0 km/h (6 Bft)
06.05.2015 17:24 15,8 C 12,2 C 58 % 1011,3 hPa 0,0 l/m 0 min 0 min 25 W/m 37,7 km/h (5 Bft)
06.05.2015 17:26 15,4 C 12,2 C 58 % 1011,3 hPa 0,0 l/m 0 min 2 min 26 W/m 54,4 km/h (7 Bft)
06.05.2015 17:28 15,0 C 11,1 C 61 % 1011,5 hPa 0,0 l/m 0 min 2 min 25 W/m 41,8 km/h (6 Bft)
06.05.2015 17:30 14,6 C 10,6 C 64 % 1011,2 hPa 0,0 l/m 0 min 2 min 31 W/m 50,2 km/h (7 Bft)
06.05.2015 17:32 14,1 C 10,0 C 67 % 1011,2 hPa 0,0 l/m 0 min 2 min 40 W/m 43,9 km/h (6 Bft)
06.05.2015 17:34 13,7 C 10,0 C 68 % 1011,0 hPa 0,0 l/m 0 min 2 min 55 W/m 31,4 km/h (5 Bft)
06.05.2015 17:36 13,4 C 10,0 C 70 % 1011,4 hPa 0,2 l/m 0 min 2 min 117 W/m 23,0 km/h (4 Bft)
06.05.2015 17:38 13,1 C 10,0 C 72 % 1011,5 hPa 0,0 l/m 0 min 2 min 165 W/m 25,1 km/h (4 Bft)
06.05.2015 17:40 12,8 C 10,0 C 73 % 1011,5 hPa 0,0 l/m 0 min 2 min 122 W/m 18,8 km/h (3 Bft)
06.05.2015 17:42 12,7 C 10,0 C 74 % 1011,5 hPa 0,0 l/m 0 min 0 min 100 W/m 25,1 km/h (4 Bft)
06.05.2015 17:44 12,5 C 10,0 C 75 % 1011,4 hPa 0,0 l/m 0 min 0 min 104 W/m 14,6 km/h (3 Bft)
06.05.2015 17:46 12,3 C 10,0 C 76 % 1011,4 hPa 0,0 l/m 0 min 0 min 93 W/m 18,8 km/h (3 Bft)
06.05.2015 17:48 12,2 C 10,0 C 77 % 1011,4 hPa 0,0 l/m 0 min 2 min 67 W/m 12,6 km/h (3 Bft)
06.05.2015 17:50 12,1 C 10,0 C 77 % 1011,6 hPa 0,2 l/m 0 min 2 min 43 W/m 18,8 km/h (3 Bft)
06.05.2015 17:52 12,0 C 10,0 C 77 % 1011,1 hPa 0,2 l/m 0 min 2 min 29 W/m 18,8 km/h (3 Bft)
06.05.2015 17:54 11,9 C 10,0 C 78 % 1011,2 hPa 0,0 l/m 0 min 2 min 25 W/m 25,1 km/h (4 Bft)
06.05.2015 17:56 11,8 C 10,0 C 78 % 1011,4 hPa 0,0 l/m 0 min 2 min 22 W/m 14,6 km/h (3 Bft)
06.05.2015 17:58 11,7 C 10,0 C 79 % 1011,5 hPa 0,2 l/m 0 min 2 min 27 W/m 10,5 km/h (2 Bft)
06.05.2015 18:00 11,6 C 9,4 C 79 % 1011,5 hPa 0,2 l/m 0 min 2 min 49 W/m 23,0 km/h (4 Bft)
06.05.2015 18:02 11,6 C 10,0 C 80 % 1011,4 hPa 0,0 l/m 0 min 2 min 138 W/m 27,2 km/h (4 Bft)
06.05.2015 18:05 11,5 C 10,6 C 82 % 1011,3 hPa 0,2 l/m 2 min 2 min 422 W/m 14,6 km/h (3 Bft)
06.05.2015 18:06 11,5 C 10,6 C 82 % 1011,3 hPa 0,0 l/m 1 min 1 min 565 W/m 14,6 km/h (3 Bft)
06.05.2015 18:08 11,6 C 10,6 C 83 % 1011,0 hPa 0,0 l/m 2 min 0 min 537 W/m 12,6 km/h (3 Bft)
06.05.2015 18:10 11,6 C 10,6 C 84 % 1011,0 hPa 0,0 l/m 2 min 0 min 503 W/m 6,3 km/h (2 Bft)
06.05.2015 18:12 11,6 C 10,6 C 84 % 1011,1 hPa 0,0 l/m 2 min 0 min 470 W/m 8,4 km/h (2 Bft)
06.05.2015 18:14 11,6 C 10,6 C 85 % 1011,0 hPa 0,0 l/m 2 min 0 min 438 W/m 8,4 km/h (2 Bft)
06.05.2015 18:16 11,7 C 10,6 C 85 % 1010,9 hPa 0,0 l/m 2 min 0 min 420 W/m 8,4 km/h (2 Bft)
06.05.2015 18:18 11,7 C 10,6 C 85 % 1010,9 hPa 0,0 l/m 2 min 0 min 327 W/m 8,4 km/h (2 Bft)
06.05.2015 18:20 11,7 C 10,6 C 86 % 1011,0 hPa 0,0 l/m 2 min 0 min 367 W/m 10,5 km/h (2 Bft)
06.05.2015 18:22 11,8 C 10,6 C 86 % 1011,0 hPa 0,0 l/m 0 min 0 min 155 W/m 12,6 km/h (3 Bft)
06.05.2015 18:24 11,8 C 11,1 C 86 % 1011,1 hPa 0,0 l/m 0 min 0 min 175 W/m 10,5 km/h (2 Bft)
06.05.2015 18:26 11,9 C 11,1 C 86 % 1011,1 hPa 0,0 l/m 0 min 0 min 168 W/m 8,4 km/h (2 Bft)
06.05.2015 18:28 11,9 C 11,1 C 86 % 1011,0 hPa 0,0 l/m 0 min 0 min 99 W/m 10,5 km/h (2 Bft)
06.05.2015 18:30 11,9 C 11,1 C 86 % 1010,9 hPa 0,0 l/m 0 min 0 min 67 W/m 8,4 km/h (2 Bft)
06.05.2015 18:32 12,0 C 11,1 C 86 % 1010,8 hPa 0,0 l/m 0 min 0 min 78 W/m 8,4 km/h (2 Bft)
06.05.2015 18:34 12,0 C 11,1 C 86 % 1011,2 hPa 0,0 l/m 0 min 0 min 55 W/m 8,4 km/h (2 Bft)
06.05.2015 18:36 12,1 C 11,1 C 86 % 1011,3 hPa 0,0 l/m 0 min 2 min 67 W/m 10,5 km/h (2 Bft)
06.05.2015 18:38 12,1 C 10,6 C 87 % 1011,3 hPa 0,4 l/m 0 min 2 min 92 W/m 20,9 km/h (4 Bft)
06.05.2015 18:40 12,1 C 10,0 C 87 % 1011,1 hPa 0,2 l/m 0 min 2 min 101 W/m 14,6 km/h (3 Bft)
06.05.2015 18:42 12,1 C 10,0 C 87 % 1011,1 hPa 0,0 l/m 0 min 2 min 70 W/m 18,8 km/h (3 Bft)
06.05.2015 18:44 12,1 C 10,0 C 87 % 1011,1 hPa 0,2 l/m 0 min 2 min 52 W/m 14,6 km/h (3 Bft)
06.05.2015 18:46 12,1 C 10,0 C 87 % 1011,2 hPa 0,0 l/m 0 min 0 min 48 W/m 6,3 km/h (2 Bft)
06.05.2015 18:48 12,0 C 10,0 C 87 % 1011,2 hPa 0,0 l/m 0 min 2 min 51 W/m 10,5 km/h (2 Bft)
06.05.2015 18:50 12,0 C 10,6 C 87 % 1011,4 hPa 0,0 l/m 0 min 2 min 90 W/m 14,6 km/h (3 Bft)
06.05.2015 18:52 12,0 C 10,6 C 87 % 1011,4 hPa 0,2 l/m 2 min 2 min 238 W/m 14,6 km/h (3 Bft)
06.05.2015 18:54 12,0 C 11,1 C 87 % 1011,4 hPa 0,2 l/m 2 min 2 min 416 W/m 18,8 km/h (3 Bft)
06.05.2015 18:56 12,1 C 11,1 C 88 % 1011,1 hPa 0,2 l/m 2 min 2 min 400 W/m 14,6 km/h (3 Bft)
06.05.2015 18:58 12,1 C 10,6 C 88 % 1011,1 hPa 0,0 l/m 2 min 2 min 308 W/m 23,0 km/h (4 Bft)
06.05.2015 19:00 12,1 C 10,6 C 88 % 1011,1 hPa 0,0 l/m 2 min 0 min 276 W/m 14,6 km/h (3 Bft)
06.05.2015 19:02 12,1 C 10,6 C 88 % 1011,0 hPa 0,0 l/m 2 min 0 min 249 W/m 12,6 km/h (3 Bft)
06.05.2015 19:04 12,1 C 10,6 C 88 % 1011,1 hPa 0,0 l/m 2 min 0 min 235 W/m 12,6 km/h (3 Bft)
06.05.2015 19:06 12,1 C 10,6 C 89 % 1011,0 hPa 0,0 l/m 2 min 0 min 226 W/m 12,6 km/h (3 Bft)
06.05.2015 19:08 12,1 C 10,6 C 89 % 1011,1 hPa 0,0 l/m 2 min 0 min 178 W/m 12,6 km/h (3 Bft)
06.05.2015 19:10 12,1 C 10,6 C 89 % 1010,9 hPa 0,0 l/m 2 min 0 min 183 W/m 12,6 km/h (3 Bft)
06.05.2015 19:12 12,1 C 10,6 C 89 % 1011,0 hPa 0,0 l/m 2 min 0 min 195 W/m 12,6 km/h (3 Bft)
06.05.2015 19:14 12,2 C 10,6 C 89 % 1010,9 hPa 0,0 l/m 2 min 0 min 187 W/m 12,6 km/h (3 Bft)
06.05.2015 19:16 12,2 C 10,6 C 89 % 1010,9 hPa 0,0 l/m 2 min 0 min 179 W/m 14,6 km/h (3 Bft)
06.05.2015 19:18 12,2 C 10,6 C 90 % 1010,9 hPa 0,0 l/m 2 min 0 min 181 W/m 10,5 km/h (2 Bft)
06.05.2015 19:20 12,2 C 10,6 C 90 % 1010,8 hPa 0,0 l/m 2 min 0 min 177 W/m 14,6 km/h (3 Bft)
06.05.2015 19:22 12,2 C 10,6 C 90 % 1010,8 hPa 0,0 l/m 2 min 0 min 172 W/m 12,6 km/h (3 Bft)
06.05.2015 19:24 12,2 C 10,6 C 90 % 1010,8 hPa 0,0 l/m 2 min 0 min 165 W/m 14,6 km/h (3 Bft)
06.05.2015 19:26 12,2 C 10,6 C 90 % 1010,8 hPa 0,0 l/m 2 min 0 min 153 W/m 12,6 km/h (3 Bft)
06.05.2015 19:28 12,2 C 10,6 C 90 % 1010,9 hPa 0,0 l/m 2 min 0 min 112 W/m 8,4 km/h (2 Bft)
06.05.2015 19:30 12,2 C 10,6 C 90 % 1010,8 hPa 0,0 l/m 0 min 0 min 86 W/m 12,6 km/h (3 Bft)
06.05.2015 19:32 12,1 C 10,6 C 90 % 1010,8 hPa 0,0 l/m 0 min 0 min 95 W/m 14,6 km/h (3 Bft)
06.05.2015 19:34 12,1 C 10,6 C 90 % 1010,7 hPa 0,0 l/m 0 min 0 min 39 W/m 12,6 km/h (3 Bft)
06.05.2015 19:36 12,1 C 10,6 C 89 % 1010,7 hPa 0,0 l/m 0 min 0 min 34 W/m 12,6 km/h (3 Bft)
06.05.2015 19:38 12,1 C 10,6 C 89 % 1010,7 hPa 0,0 l/m 0 min 0 min 40 W/m 10,5 km/h (2 Bft)
06.05.2015 19:40 12,1 C 10,6 C 89 % 1010,7 hPa 0,0 l/m 0 min 0 min 39 W/m 14,6 km/h (3 Bft)
06.05.2015 19:42 12,1 C 10,6 C 89 % 1010,6 hPa 0,0 l/m 0 min 0 min 37 W/m 12,6 km/h (3 Bft)
06.05.2015 19:44 12,1 C 10,6 C 89 % 1010,7 hPa 0,0 l/m 0 min 0 min 36 W/m 14,6 km/h (3 Bft)
06.05.2015 19:46 12,1 C 10,6 C 88 % 1010,8 hPa 0,0 l/m 0 min 0 min 37 W/m 14,6 km/h (3 Bft)
06.05.2015 19:48 12,1 C 10,6 C 88 % 1010,8 hPa 0,0 l/m 0 min 0 min 39 W/m 14,6 km/h (3 Bft)
06.05.2015 19:50 12,1 C 10,6 C 88 % 1010,8 hPa 0,0 l/m 0 min 0 min 35 W/m 14,6 km/h (3 Bft)
06.05.2015 19:52 12,1 C 10,6 C 88 % 1010,7 hPa 0,0 l/m 0 min 0 min 33 W/m 12,6 km/h (3 Bft)
06.05.2015 19:54 12,1 C 10,6 C 87 % 1010,8 hPa 0,0 l/m 0 min 0 min 29 W/m 25,1 km/h (4 Bft)
06.05.2015 19:56 12,1 C 10,6 C 87 % 1010,8 hPa 0,0 l/m 0 min 0 min 25 W/m 14,6 km/h (3 Bft)
06.05.2015 19:58 12,1 C 10,0 C 87 % 1010,7 hPa 0,0 l/m 0 min 0 min 23 W/m 12,6 km/h (3 Bft)
06.05.2015 20:00 12,1 C 10,0 C 87 % 1010,7 hPa 0,0 l/m 0 min 0 min 22 W/m 16,7 km/h (3 Bft)
06.05.2015 20:02 12,1 C 10,0 C 86 % 1010,9 hPa 0,0 l/m 0 min 0 min 23 W/m 14,6 km/h (3 Bft)
06.05.2015 20:04 12,1 C 10,0 C 86 % 1011,0 hPa 0,0 l/m 0 min 0 min 24 W/m 16,7 km/h (3 Bft)
06.05.2015 20:06 12,1 C 10,0 C 85 % 1011,0 hPa 0,0 l/m 0 min 0 min 26 W/m 16,7 km/h (3 Bft)
06.05.2015 20:08 12,1 C 10,0 C 85 % 1011,0 hPa 0,0 l/m 0 min 0 min 31 W/m 27,2 km/h (4 Bft)
06.05.2015 20:10 12,2 C 10,0 C 84 % 1011,0 hPa 0,0 l/m 0 min 0 min 35 W/m 23,0 km/h (4 Bft)
06.05.2015 20:12 12,2 C 10,0 C 84 % 1011,0 hPa 0,0 l/m 0 min 0 min 32 W/m 20,9 km/h (4 Bft)
06.05.2015 20:14 12,2 C 10,0 C 83 % 1010,9 hPa 0,0 l/m 0 min 0 min 40 W/m 27,2 km/h (4 Bft)
06.05.2015 20:16 12,2 C 10,0 C 83 % 1011,0 hPa 0,0 l/m 0 min 0 min 32 W/m 20,9 km/h (4 Bft)
06.05.2015 20:18 12,3 C 10,0 C 83 % 1010,9 hPa 0,0 l/m 0 min 0 min 31 W/m 31,4 km/h (5 Bft)
06.05.2015 20:20 12,3 C 10,0 C 82 % 1011,0 hPa 0,0 l/m 0 min 0 min 33 W/m 18,8 km/h (3 Bft)
06.05.2015 20:22 12,4 C 10,0 C 81 % 1011,0 hPa 0,0 l/m 0 min 0 min 35 W/m 33,5 km/h (5 Bft)
06.05.2015 20:24 12,4 C 10,0 C 81 % 1011,0 hPa 0,0 l/m 0 min 0 min 35 W/m 35,6 km/h (5 Bft)
06.05.2015 20:26 12,4 C 10,0 C 80 % 1011,1 hPa 0,0 l/m 0 min 0 min 36 W/m 20,9 km/h (4 Bft)
06.05.2015 20:28 12,5 C 10,0 C 80 % 1011,1 hPa 0,0 l/m 0 min 0 min 35 W/m 18,8 km/h (3 Bft)
06.05.2015 20:30 12,5 C 10,0 C 79 % 1011,1 hPa 0,0 l/m 0 min 0 min 33 W/m 25,1 km/h (4 Bft)
06.05.2015 20:32 12,6 C 10,0 C 79 % 1011,1 hPa 0,0 l/m 0 min 0 min 28 W/m 23,0 km/h (4 Bft)
06.05.2015 20:34 12,6 C 10,0 C 79 % 1011,1 hPa 0,0 l/m 0 min 0 min 23 W/m 18,8 km/h (3 Bft)
06.05.2015 20:36 12,6 C 10,0 C 79 % 1011,1 hPa 0,0 l/m 0 min 0 min 22 W/m 20,9 km/h (4 Bft)
06.05.2015 20:38 12,6 C 10,0 C 79 % 1011,1 hPa 0,0 l/m 0 min 0 min 20 W/m 29,3 km/h (5 Bft)
06.05.2015 20:40 12,7 C 10,0 C 78 % 1011,2 hPa 0,0 l/m 0 min 0 min 19 W/m 16,7 km/h (3 Bft)
06.05.2015 20:42 12,7 C 10,0 C 78 % 1011,2 hPa 0,0 l/m 0 min 0 min 17 W/m 25,1 km/h (4 Bft)
06.05.2015 20:44 12,7 C 10,0 C 78 % 1011,2 hPa 0,0 l/m 0 min 0 min 16 W/m 20,9 km/h (4 Bft)
06.05.2015 20:46 12,7 C 10,0 C 78 % 1011,2 hPa 0,0 l/m 0 min 0 min 14 W/m 31,4 km/h (5 Bft)
06.05.2015 20:48 12,8 C 10,0 C 77 % 1011,3 hPa 0,0 l/m 0 min 0 min 13 W/m 25,1 km/h (4 Bft)
06.05.2015 20:50 12,8 C 10,0 C 77 % 1011,3 hPa 0,0 l/m 0 min 0 min 12 W/m 18,8 km/h (3 Bft)
06.05.2015 20:52 12,8 C 10,0 C 77 % 1011,3 hPa 0,0 l/m 0 min 0 min 12 W/m 23,0 km/h (4 Bft)
06.05.2015 20:54 12,8 C 10,0 C 77 % 1011,3 hPa 0,0 l/m 0 min 0 min 11 W/m 25,1 km/h (4 Bft)
06.05.2015 20:56 12,9 C 10,0 C 77 % 1011,3 hPa 0,0 l/m 0 min 0 min 9 W/m 27,2 km/h (4 Bft)
06.05.2015 20:58 12,9 C 10,0 C 77 % 1011,3 hPa 0,0 l/m 0 min 0 min 9 W/m 29,3 km/h (5 Bft)
06.05.2015 21:00 12,9 C 10,0 C 76 % 1011,3 hPa 0,0 l/m 0 min 0 min 7 W/m 33,5 km/h (5 Bft)
06.05.2015 21:02 12,9 C 10,0 C 76 % 1011,4 hPa 0,0 l/m 0 min 0 min 6 W/m 35,6 km/h (5 Bft)
06.05.2015 21:04 13,0 C 10,0 C 75 % 1011,4 hPa 0,0 l/m 0 min 0 min 5 W/m 48,1 km/h (6 Bft)
06.05.2015 21:06 13,0 C 10,0 C 74 % 1011,5 hPa 0,0 l/m 0 min 0 min 4 W/m 58,6 km/h (7 Bft)
06.05.2015 21:08 13,0 C 10,0 C 74 % 1011,5 hPa 0,0 l/m 0 min 0 min 0 W/m 27,2 km/h (4 Bft)
06.05.2015 21:10 13,0 C 10,0 C 73 % 1011,6 hPa 0,0 l/m 0 min 0 min 0 W/m 39,7 km/h (6 Bft)
06.05.2015 21:12 12,9 C 10,0 C 72 % 1011,6 hPa 0,0 l/m 0 min 0 min 0 W/m 43,9 km/h (6 Bft)
06.05.2015 21:14 12,9 C 10,0 C 70 % 1011,6 hPa 0,0 l/m 0 min 0 min 0 W/m 31,4 km/h (5 Bft)
06.05.2015 21:16 12,8 C 10,0 C 69 % 1011,8 hPa 0,0 l/m 0 min 0 min 0 W/m 37,7 km/h (5 Bft)
06.05.2015 21:18 12,7 C 9,4 C 69 % 1011,8 hPa 0,0 l/m 0 min 0 min 0 W/m 39,7 km/h (6 Bft)
06.05.2015 21:20 12,6 C 9,4 C 69 % 1011,8 hPa 0,0 l/m 0 min 0 min 0 W/m 29,3 km/h (5 Bft)
06.05.2015 21:22 12,6 C 9,4 C 69 % 1011,8 hPa 0,0 l/m 0 min 0 min 0 W/m 35,6 km/h (5 Bft)
06.05.2015 21:24 12,5 C 9,4 C 69 % 1011,8 hPa 0,0 l/m 0 min 0 min 0 W/m 33,5 km/h (5 Bft)
06.05.2015 21:26 12,4 C 9,4 C 69 % 1011,9 hPa 0,0 l/m 0 min 0 min 0 W/m 33,5 km/h (5 Bft)
06.05.2015 21:28 12,4 C 9,4 C 70 % 1012,0 hPa 0,0 l/m 0 min 0 min 0 W/m 25,1 km/h (4 Bft)
06.05.2015 21:30 12,3 C 9,4 C 70 % 1011,9 hPa 0,0 l/m 0 min 0 min 0 W/m 39,7 km/h (6 Bft)
06.05.2015 21:32 12,2 C 9,4 C 70 % 1012,0 hPa 0,0 l/m 0 min 0 min 0 W/m 29,3 km/h (5 Bft)
06.05.2015 21:34 12,2 C 9,4 C 71 % 1011,9 hPa 0,0 l/m 0 min 0 min 0 W/m 25,1 km/h (4 Bft)
06.05.2015 21:36 12,1 C 9,4 C 71 % 1012,0 hPa 0,0 l/m 0 min 0 min 0 W/m 29,3 km/h (5 Bft)
06.05.2015 21:38 12,1 C 9,4 C 71 % 1012,0 hPa 0,0 l/m 0 min 0 min 0 W/m 27,2 km/h (4 Bft)
06.05.2015 21:40 12,0 C 9,4 C 71 % 1012,1 hPa 0,0 l/m 0 min 0 min 0 W/m 29,3 km/h (5 Bft)
06.05.2015 21:42 11,9 C 9,4 C 72 % 1012,1 hPa 0,0 l/m 0 min 0 min 0 W/m 27,2 km/h (4 Bft)
06.05.2015 21:44 11,9 C 9,4 C 72 % 1012,2 hPa 0,0 l/m 0 min 0 min 0 W/m 29,3 km/h (5 Bft)
06.05.2015 21:46 11,9 C 9,4 C 73 % 1012,2 hPa 0,0 l/m 0 min 0 min 0 W/m 31,4 km/h (5 Bft)
06.05.2015 21:48 11,8 C 9,4 C 73 % 1012,2 hPa 0,0 l/m 0 min 0 min 0 W/m 23,0 km/h (4 Bft)
06.05.2015 21:50 11,8 C 9,4 C 74 % 1012,3 hPa 0,0 l/m 0 min 0 min 0 W/m 27,2 km/h (4 Bft)
06.05.2015 21:52 11,7 C 9,4 C 74 % 1012,3 hPa 0,0 l/m 0 min 0 min 0 W/m 27,2 km/h (4 Bft)
06.05.2015 21:54 11,7 C 9,4 C 74 % 1012,3 hPa 0,0 l/m 0 min 0 min 0 W/m 20,9 km/h (4 Bft)
06.05.2015 21:56 11,7 C 9,4 C 74 % 1012,3 hPa 0,0 l/m 0 min 0 min 0 W/m 27,2 km/h (4 Bft)
06.05.2015 21:58 11,6 C 9,4 C 75 % 1012,4 hPa 0,0 l/m 0 min 0 min 0 W/m 27,2 km/h (4 Bft)
06.05.2015 22:00 11,6 C 9,4 C 75 % 1012,4 hPa 0,0 l/m 0 min 0 min 0 W/m 20,9 km/h (4 Bft)
06.05.2015 22:02 11,5 C 9,4 C 75 % 1012,4 hPa 0,0 l/m 0 min 0 min 0 W/m 18,8 km/h (3 Bft)
06.05.2015 22:04 11,5 C 9,4 C 76 % 1012,5 hPa 0,0 l/m 0 min 0 min 0 W/m 25,1 km/h (4 Bft)
06.05.2015 22:06 11,4 C 9,4 C 76 % 1012,5 hPa 0,0 l/m 0 min 0 min 0 W/m 16,7 km/h (3 Bft)
06.05.2015 22:08 11,4 C 9,4 C 76 % 1012,6 hPa 0,0 l/m 0 min 0 min 0 W/m 27,2 km/h (4 Bft)
06.05.2015 22:10 11,4 C 9,4 C 76 % 1012,6 hPa 0,0 l/m 0 min 0 min 0 W/m 25,1 km/h (4 Bft)
06.05.2015 22:12 11,4 C 9,4 C 77 % 1012,7 hPa 0,0 l/m 0 min 0 min 0 W/m 16,7 km/h (3 Bft)
06.05.2015 22:14 11,3 C 9,4 C 77 % 1012,7 hPa 0,0 l/m 0 min 0 min 0 W/m 18,8 km/h (3 Bft)
06.05.2015 22:16 11,3 C 9,4 C 77 % 1012,8 hPa 0,0 l/m 0 min 0 min 0 W/m 23,0 km/h (4 Bft)
06.05.2015 22:18 11,3 C 9,4 C 77 % 1012,8 hPa 0,0 l/m 0 min 0 min 0 W/m 27,2 km/h (4 Bft)
06.05.2015 22:20 11,3 C 9,4 C 78 % 1012,8 hPa 0,0 l/m 0 min 0 min 0 W/m 16,7 km/h (3 Bft)
06.05.2015 22:22 11,2 C 9,4 C 78 % 1012,9 hPa 0,0 l/m 0 min 0 min 0 W/m 20,9 km/h (4 Bft)
06.05.2015 22:24 11,2 C 9,4 C 78 % 1012,9 hPa 0,0 l/m 0 min 0 min 0 W/m 23,0 km/h (4 Bft)
06.05.2015 22:26 11,2 C 9,4 C 78 % 1012,9 hPa 0,0 l/m 0 min 0 min 0 W/m 18,8 km/h (3 Bft)
06.05.2015 22:28 11,2 C 9,4 C 78 % 1012,9 hPa 0,0 l/m 0 min 0 min 0 W/m 27,2 km/h (4 Bft)
06.05.2015 22:30 11,2 C 9,4 C 79 % 1012,9 hPa 0,0 l/m 0 min 0 min 0 W/m 20,9 km/h (4 Bft)
06.05.2015 22:32 11,1 C 8,9 C 79 % 1012,9 hPa 0,0 l/m 0 min 0 min 0 W/m 27,2 km/h (4 Bft)
06.05.2015 22:34 11,1 C 8,9 C 79 % 1012,9 hPa 0,0 l/m 0 min 0 min 0 W/m 25,1 km/h (4 Bft)
06.05.2015 22:36 11,1 C 8,9 C 79 % 1012,9 hPa 0,0 l/m 0 min 0 min 0 W/m 23,0 km/h (4 Bft)
06.05.2015 22:38 11,1 C 8,9 C 79 % 1012,9 hPa 0,0 l/m 0 min 0 min 0 W/m 20,9 km/h (4 Bft)
06.05.2015 22:40 11,1 C 8,9 C 79 % 1013,0 hPa 0,0 l/m 0 min 0 min 0 W/m 23,0 km/h (4 Bft)
06.05.2015 22:42 11,1 C 8,9 C 79 % 1012,9 hPa 0,0 l/m 0 min 0 min 0 W/m 23,0 km/h (4 Bft)
06.05.2015 22:44 11,1 C 8,9 C 79 % 1013,0 hPa 0,0 l/m 0 min 0 min 0 W/m 27,2 km/h (4 Bft)
06.05.2015 22:46 11,0 C 8,9 C 79 % 1013,0 hPa 0,0 l/m 0 min 0 min 0 W/m 27,2 km/h (4 Bft)
06.05.2015 22:48 11,0 C 8,9 C 79 % 1013,1 hPa 0,0 l/m 0 min 0 min 0 W/m 20,9 km/h (4 Bft)
06.05.2015 22:50 11,0 C 8,9 C 79 % 1013,0 hPa 0,0 l/m 0 min 0 min 0 W/m 35,6 km/h (5 Bft)
06.05.2015 22:52 11,0 C 8,9 C 79 % 1013,0 hPa 0,0 l/m 0 min 0 min 0 W/m 27,2 km/h (4 Bft)
06.05.2015 22:54 11,1 C 8,9 C 79 % 1013,0 hPa 0,0 l/m 0 min 0 min 0 W/m 20,9 km/h (4 Bft)
06.05.2015 22:56 11,1 C 8,9 C 79 % 1013,0 hPa 0,0 l/m 0 min 0 min 0 W/m 23,0 km/h (4 Bft)
06.05.2015 22:58 11,1 C 8,9 C 79 % 1013,1 hPa 0,0 l/m 0 min 0 min 0 W/m 18,8 km/h (3 Bft)
06.05.2015 23:00 11,1 C 8,9 C 79 % 1013,1 hPa 0,0 l/m 0 min 0 min 0 W/m 20,9 km/h (4 Bft)
06.05.2015 23:02 11,1 C 8,9 C 79 % 1013,1 hPa 0,0 l/m 0 min 0 min 0 W/m 25,1 km/h (4 Bft)
06.05.2015 23:04 11,1 C 8,9 C 79 % 1013,1 hPa 0,0 l/m 0 min 0 min 0 W/m 33,5 km/h (5 Bft)
06.05.2015 23:06 11,1 C 8,9 C 79 % 1013,1 hPa 0,0 l/m 0 min 0 min 0 W/m 25,1 km/h (4 Bft)
06.05.2015 23:08 11,1 C 8,9 C 79 % 1013,0 hPa 0,0 l/m 0 min 0 min 0 W/m 23,0 km/h (4 Bft)
06.05.2015 23:10 11,1 C 8,9 C 79 % 1013,0 hPa 0,0 l/m 0 min 0 min 0 W/m 29,3 km/h (5 Bft)
06.05.2015 23:12 11,1 C 8,9 C 78 % 1013,0 hPa 0,0 l/m 0 min 0 min 0 W/m 33,5 km/h (5 Bft)
06.05.2015 23:14 11,1 C 8,9 C 78 % 1013,2 hPa 0,0 l/m 0 min 0 min 0 W/m 29,3 km/h (5 Bft)
06.05.2015 23:16 11,1 C 8,9 C 78 % 1013,1 hPa 0,0 l/m 0 min 0 min 0 W/m 25,1 km/h (4 Bft)
06.05.2015 23:18 11,1 C 8,9 C 79 % 1013,2 hPa 0,0 l/m 0 min 0 min 0 W/m 18,8 km/h (3 Bft)
06.05.2015 23:20 11,1 C 8,9 C 79 % 1013,1 hPa 0,0 l/m 0 min 0 min 0 W/m 23,0 km/h (4 Bft)
06.05.2015 23:22 11,1 C 8,9 C 79 % 1013,1 hPa 0,0 l/m 0 min 0 min 0 W/m 18,8 km/h (3 Bft)
06.05.2015 23:24 11,1 C 8,9 C 78 % 1013,2 hPa 0,0 l/m 0 min 0 min 0 W/m 27,2 km/h (4 Bft)
06.05.2015 23:26 11,1 C 8,9 C 78 % 1013,1 hPa 0,0 l/m 0 min 0 min 0 W/m 23,0 km/h (4 Bft)
06.05.2015 23:28 11,1 C 8,9 C 78 % 1013,2 hPa 0,0 l/m 0 min 0 min 0 W/m 25,1 km/h (4 Bft)
06.05.2015 23:30 11,1 C 8,9 C 78 % 1013,2 hPa 0,0 l/m 0 min 0 min 0 W/m 20,9 km/h (4 Bft)
06.05.2015 23:32 11,1 C 8,9 C 78 % 1013,1 hPa 0,0 l/m 0 min 0 min 0 W/m 20,9 km/h (4 Bft)
06.05.2015 23:34 11,1 C 8,9 C 78 % 1013,2 hPa 0,0 l/m 0 min 0 min 0 W/m 14,6 km/h (3 Bft)
06.05.2015 23:36 11,1 C 8,9 C 78 % 1013,2 hPa 0,0 l/m 0 min 0 min 0 W/m 16,7 km/h (3 Bft)
06.05.2015 23:38 11,1 C 8,9 C 78 % 1013,2 hPa 0,0 l/m 0 min 0 min 0 W/m 20,9 km/h (4 Bft)
06.05.2015 23:40 11,1 C 8,9 C 79 % 1013,3 hPa 0,0 l/m 0 min 0 min 0 W/m 18,8 km/h (3 Bft)
06.05.2015 23:42 11,1 C 8,9 C 79 % 1013,3 hPa 0,0 l/m 0 min 0 min 0 W/m 12,6 km/h (3 Bft)
06.05.2015 23:44 11,0 C 8,9 C 78 % 1013,3 hPa 0,0 l/m 0 min 0 min 0 W/m 14,6 km/h (3 Bft)
06.05.2015 23:46 11,0 C 8,9 C 79 % 1013,2 hPa 0,0 l/m 0 min 0 min 0 W/m 25,1 km/h (4 Bft)
06.05.2015 23:48 10,9 C 8,9 C 79 % 1013,3 hPa 0,0 l/m 0 min 0 min 0 W/m 23,0 km/h (4 Bft)
06.05.2015 23:50 10,9 C 8,9 C 79 % 1013,3 hPa 0,0 l/m 0 min 0 min 0 W/m 25,1 km/h (4 Bft)
06.05.2015 23:52 10,9 C 8,9 C 79 % 1013,4 hPa 0,0 l/m 0 min 0 min 0 W/m 25,1 km/h (4 Bft)
06.05.2015 23:54 10,9 C 8,9 C 79 % 1013,3 hPa 0,0 l/m 0 min 0 min 0 W/m 16,7 km/h (3 Bft)
06.05.2015 23:56 10,9 C 8,9 C 79 % 1013,3 hPa 0,0 l/m 0 min 0 min 0 W/m 14,6 km/h (3 Bft)
06.05.2015 23:58 10,9 C 8,9 C 79 % 1013,3 hPa 0,0 l/m 0 min 0 min 0 W/m 16,7 km/h (3 Bft)
_ Min-Zeit 06:24 05:58 16:26 00:10 - - - - 00:02
Minimum _ 9,9 C 8,9 C 54 % 1008,3 hPa - - - - 6,3 km/h (2 Bft)
_ Max-Zeit 13:54 13:30 19:18 23:52 18:38 06:42 14:02 13:50 16:26
Maximum _ 17,4 C 15,6 C 90 % 1013,4 hPa 0,4 l/m 2 min 2 min 1055 W/m 73,2 km/h
SW (8 Bft)
Durchschnitt _ 13,2 C 11,1 C 73 % 1010,5 hPa #2,8 l/m #8:51 h #1:21 h 328 W/m 24,9 km/h (4 Bft)
© 2015 W. Hausmann